M I D A S
Marine Information and Data Acquisition System
Tripno 2121 of the Zeeleeuw from 2011-06-16 07:04:24 to 2011-06-16 16:24:50
Back to CruiseResearch ActivitiesStationsMapUnderway DataData graphs

EquipmentUnitsComment
TimeDGPSUTC
LatitudeDGPSDM.mWGS84
LongitudeDGPSDM.mWGS84
TemperatureSBE03/SBE38deg celciusITS90
ConductivitySBE21S/mITS90
SalinitySBE21 Practical Salinity Units
ChlorophylAChelsea fluorimeterg/lCalibrated in Aceton
Missing or incorrect values are displayed as -999
Sea surface data collected by the RV Zeeleeuw from 2011-06-16 06:53:31 to 2011-06-16 16:31:56
                                                                                    Next 1000 lines
Time Latitude Longitude Temperature Conductivity Salinity ChlorophylA
2011-06-16 06:53:41 51°13.636 2°56.015 19.4144 0.012073 0.064335 -3.020363
2011-06-16 06:53:47 51°13.637 2°56.011 19.442 0.012073 0.064337 -3.020363
2011-06-16 06:53:52 51°13.638 2°56.006 19.4805 0.012073 0.064338 -3.020363
2011-06-16 06:53:57 51°13.64 2°56.001 19.4712 0.012073 0.064339 -3.020363
2011-06-16 06:54:03 51°13.642 2°55.993 19.4847 0.012073 0.064339 -3.020363
2011-06-16 06:54:09 51°13.644 2°55.985 19.5041 0.012073 0.064339 -3.020363
2011-06-16 06:54:14 51°13.647 2°55.977 19.486 0.012073 0.064339 -3.020363
2011-06-16 06:54:19 51°13.649 2°55.969 19.4642 0.012073 0.064341 -3.020363
2011-06-16 06:54:24 51°13.652 2°55.961 19.4727 0.012073 0.064342 -3.020363
2011-06-16 06:54:29 51°13.654 2°55.952 19.4939 0.012073 0.064343 -3.020363
2011-06-16 06:54:34 51°13.656 2°55.944 19.5039 0.012073 0.064343 -3.020363
2011-06-16 06:54:39 51°13.658 2°55.935 19.4924 0.012073 0.064343 -3.020363
2011-06-16 06:54:44 51°13.66 2°55.927 19.4929 0.012073 0.064344 -3.020363
2011-06-16 06:54:50 51°13.662 2°55.917 19.4896 0.012073 0.064345 -3.020363
2011-06-16 06:54:55 51°13.664 2°55.908 19.5016 0.012073 0.064346 -3.020363
2011-06-16 06:54:59 51°13.665 2°55.901 19.492 0.012073 0.064347 -3.020363
2011-06-16 06:55:04 51°13.667 2°55.893 19.4936 0.012073 0.064347 -3.020363
2011-06-16 06:55:09 51°13.669 2°55.885 19.4941 0.012073 0.064347 -3.020363
2011-06-16 06:55:14 51°13.671 2°55.877 19.4952 0.012073 0.064347 -3.020363
2011-06-16 06:55:19 51°13.673 2°55.869 19.5001 0.012073 0.064349 -3.020363
2011-06-16 06:55:24 51°13.674 2°55.861 19.4997 0.012073 0.06435 -3.020363
2011-06-16 06:55:29 51°13.676 2°55.853 19.4992 0.012073 0.064351 -3.020363
2011-06-16 06:55:34 51°13.678 2°55.845 19.4989 0.012073 0.064351 -3.020363
2011-06-16 06:55:39 51°13.679 2°55.837 19.4999 0.012073 0.064351 -3.020363
2011-06-16 06:55:44 51°13.681 2°55.829 19.4962 0.012073 0.064352 -3.020363
2011-06-16 06:55:49 51°13.682 2°55.822 19.4945 0.012073 0.064353 -3.020363
2011-06-16 06:55:54 51°13.683 2°55.814 19.4914 0.012073 0.064353 -3.020363
2011-06-16 06:55:59 51°13.685 2°55.807 19.4959 0.012073 0.064355 -3.020363
2011-06-16 06:56:04 51°13.686 2°55.799 19.4972 0.012073 0.064355 -3.020363
2011-06-16 06:56:09 51°13.686 2°55.792 19.496 0.012073 0.064355 -3.020363
2011-06-16 06:56:14 51°13.687 2°55.785 19.4987 0.012073 0.064356 -3.020363
2011-06-16 06:56:19 51°13.689 2°55.778 19.4979 0.012073 0.064356 -3.020363
2011-06-16 06:56:24 51°13.69 2°55.771 19.5019 0.012073 0.064358 -3.020363
2011-06-16 06:56:29 51°13.691 2°55.765 19.5024 0.012073 0.064358 -3.020363
2011-06-16 06:56:34 51°13.692 2°55.759 19.5042 0.012073 0.064358 -3.020363
2011-06-16 06:56:39 51°13.693 2°55.753 19.5022 0.012073 0.064359 -3.020363
2011-06-16 06:56:44 51°13.693 2°55.748 19.5016 0.012073 0.06436 -3.020363
2011-06-16 06:56:49 51°13.694 2°55.745 19.507 0.012073 0.06436 -3.020363
2011-06-16 06:56:54 51°13.694 2°55.742 19.5194 0.012073 0.064361 -3.020363
2011-06-16 06:56:59 51°13.694 2°55.741 19.527 0.012073 0.064362 -3.020363
2011-06-16 06:57:03 51°13.694 2°55.741 19.5437 0.012073 0.064362 -3.020363
2011-06-16 06:57:08 51°13.695 2°55.741 19.5467 0.012073 0.064363 -3.020363
2011-06-16 06:57:13 51°13.696 2°55.743 19.5464 0.012073 0.064364 -3.020363
2011-06-16 06:57:18 51°13.697 2°55.745 19.5455 0.012073 0.064365 -3.020363
2011-06-16 06:57:23 51°13.699 2°55.747 19.5291 0.012073 0.064366 -3.020363
2011-06-16 06:57:27 51°13.7 2°55.749 19.5165 0.012073 0.064367 -3.020363
2011-06-16 06:57:33 51°13.702 2°55.751 19.4883 0.012073 0.064367 -3.020363
2011-06-16 06:57:39 51°13.703 2°55.752 19.4752 0.012073 0.064368 -3.020363
2011-06-16 06:57:44 51°13.704 2°55.752 19.465 0.012073 0.064368 -3.020363
2011-06-16 06:57:48 51°13.704 2°55.752 19.4632 0.012073 0.064369 -3.020363
2011-06-16 06:57:53 51°13.704 2°55.751 19.461 0.012073 0.064371 -3.020363
2011-06-16 06:57:58 51°13.703 2°55.749 19.4759 0.012073 0.064371 -3.020363
2011-06-16 06:58:03 51°13.701 2°55.747 19.4711 0.012073 0.064371 -3.020363
2011-06-16 06:58:08 51°13.699 2°55.745 19.5028 0.012073 0.064372 -3.020363
2011-06-16 06:58:12 51°13.697 2°55.743 19.5062 0.012073 0.064372 -3.020363
2011-06-16 06:58:18 51°13.694 2°55.74 19.5199 0.012073 0.064374 -3.020363
2011-06-16 06:58:24 51°13.692 2°55.737 19.5135 0.012073 0.064374 -3.020363
2011-06-16 06:58:29 51°13.689 2°55.736 19.5132 0.012073 0.064375 -3.020363
2011-06-16 06:58:34 51°13.688 2°55.734 19.5195 0.012073 0.064375 -3.020363
2011-06-16 06:58:39 51°13.687 2°55.733 19.535 0.012073 0.064376 -3.020363
2011-06-16 06:58:44 51°13.687 2°55.733 19.5428 0.012073 0.064376 -3.020363
2011-06-16 06:58:49 51°13.689 2°55.733 19.5499 0.012073 0.064377 -3.020363
2011-06-16 06:58:54 51°13.691 2°55.732 19.5517 0.012073 0.064378 -3.020363
2011-06-16 06:58:59 51°13.694 2°55.732 19.5538 0.012073 0.064379 -3.020363
2011-06-16 06:59:05 51°13.699 2°55.73 19.548 0.012073 0.064379 -3.020363
2011-06-16 06:59:09 51°13.703 2°55.729 19.551 0.012073 0.06438 -3.020363
2011-06-16 06:59:14 51°13.709 2°55.727 19.5466 0.012073 0.06438 -3.020363
2011-06-16 06:59:19 51°13.715 2°55.724 19.5419 0.012073 0.064381 -3.020363
2011-06-16 06:59:24 51°13.722 2°55.719 19.541 0.012073 0.064382 -3.020363
2011-06-16 06:59:29 51°13.73 2°55.715 19.5274 0.012073 0.064383 -3.020363
2011-06-16 06:59:33 51°13.736 2°55.711 19.5162 0.012073 0.064383 -3.020363
2011-06-16 06:59:39 51°13.746 2°55.705 19.5148 0.012073 0.064384 -3.020363
2011-06-16 06:59:44 51°13.755 2°55.699 19.4913 0.012073 0.064384 -3.020363
2011-06-16 06:59:49 51°13.765 2°55.692 19.478 0.012073 0.064385 -3.020363
2011-06-16 06:59:54 51°13.775 2°55.685 19.4867 0.012073 0.064386 -3.020363
2011-06-16 06:59:59 51°13.785 2°55.678 19.4804 0.012073 0.064387 -3.020363
2011-06-16 07:00:04 51°13.795 2°55.67 19.482 0.012073 0.064387 -3.020363
2011-06-16 07:00:09 51°13.806 2°55.662 19.4774 0.012073 0.064388 -3.020363
2011-06-16 07:00:14 51°13.816 2°55.654 19.4662 0.012073 0.064388 -3.020363
2011-06-16 07:00:19 51°13.827 2°55.646 19.4582 0.012073 0.064388 -3.020363
2011-06-16 07:00:24 51°13.838 2°55.638 19.4733 0.012073 0.06439 -3.020363
2011-06-16 07:00:29 51°13.849 2°55.629 19.4818 0.012073 0.06439 -3.020363
2011-06-16 07:00:34 51°13.86 2°55.62 19.4856 0.012073 0.06439 -3.020363
2011-06-16 07:00:39 51°13.871 2°55.611 19.4813 0.012073 0.064391 -3.020363
2011-06-16 07:00:44 51°13.882 2°55.602 19.4476 0.012073 0.064392 -3.020363
2011-06-16 07:00:49 51°13.893 2°55.593 19.453 0.012073 0.064392 -3.020363
2011-06-16 07:00:54 51°13.904 2°55.584 19.4597 0.012073 0.064393 -3.020363
2011-06-16 07:00:59 51°13.915 2°55.576 19.4621 0.012073 0.064394 -3.020363
2011-06-16 07:01:04 51°13.926 2°55.568 19.4587 0.012073 0.064394 -3.020363
2011-06-16 07:01:09 51°13.938 2°55.56 19.4305 0.012073 0.064394 -3.020363
2011-06-16 07:01:14 51°13.949 2°55.553 19.4636 0.012073 0.064395 -3.020363
2011-06-16 07:01:19 51°13.96 2°55.546 19.4712 0.01197 0.063891 -3.020363
2011-06-16 07:01:24 51°13.971 2°55.539 19.4822 0.012073 0.064396 -3.020363
2011-06-16 07:01:29 51°13.983 2°55.531 19.4989 0.012073 0.064396 -3.020363
2011-06-16 07:01:34 51°13.994 2°55.524 19.5333 0.012073 0.064396 -3.020363
2011-06-16 07:01:39 51°14.005 2°55.516 19.5343 0.012073 0.064397 -3.020363
2011-06-16 07:01:44 51°14.016 2°55.508 19.5297 0.012073 0.064398 -3.020363
2011-06-16 07:01:49 51°14.027 2°55.5 19.5238 0.01197 0.063895 -3.020363
2011-06-16 07:01:55 51°14.041 2°55.49 19.5239 0.012073 0.0644 -3.020363
2011-06-16 07:01:59 51°14.05 2°55.484 19.5196 0.01197 0.063895 -3.020363
2011-06-16 07:02:04 51°14.061 2°55.475 19.5222 0.01197 0.063895 -3.020363
2011-06-16 07:02:09 51°14.073 2°55.467 19.5215 0.012073 0.0644 -3.020363
2011-06-16 07:02:15 51°14.086 2°55.456 19.5212 0.01197 0.063897 -3.020363
2011-06-16 07:02:19 51°14.096 2°55.449 19.5197 0.01197 0.063898 -3.020363
2011-06-16 07:02:24 51°14.107 2°55.44 19.5092 0.012073 0.064403 -3.020363
2011-06-16 07:02:29 51°14.119 2°55.431 19.4998 0.012073 0.064404 -3.020363
2011-06-16 07:02:34 51°14.131 2°55.423 19.4927 0.012073 0.064404 -3.020363
2011-06-16 07:02:39 51°14.142 2°55.414 19.4911 0.01197 0.0639 -3.020363
2011-06-16 07:02:44 51°14.154 2°55.405 19.4921 0.01197 0.0639 -3.020363
2011-06-16 07:02:50 51°14.168 2°55.395 19.4944 0.01197 0.063901 -3.020363
2011-06-16 07:02:54 51°14.178 2°55.388 19.4969 0.012073 0.064406 -3.020363
2011-06-16 07:02:59 51°14.19 2°55.38 19.4961 0.012073 0.064407 -3.020363
2011-06-16 07:03:04 51°14.202 2°55.371 19.5108 0.012073 0.064407 -3.020363
2011-06-16 07:03:09 51°14.214 2°55.363 19.5237 0.01197 0.063903 -3.020363
2011-06-16 07:03:14 51°14.226 2°55.354 19.5378 0.01197 0.063904 -3.020363
2011-06-16 07:03:19 51°14.237 2°55.345 19.5327 0.012073 0.064409 -3.020363
2011-06-16 07:03:23 51°14.247 2°55.338 19.5535 0.01197 0.063905 -3.020363
2011-06-16 07:03:29 51°14.261 2°55.326 19.5535 0.01197 0.063907 -3.020363
2011-06-16 07:03:34 51°14.272 2°55.316 19.5473 0.01197 0.063907 -3.020363
2011-06-16 07:03:39 51°14.284 2°55.305 19.5433 0.01197 0.063907 -3.020363
2011-06-16 07:03:44 51°14.295 2°55.294 19.5424 0.01197 0.063907 -3.020363
2011-06-16 07:03:49 51°14.307 2°55.283 19.5414 0.01197 0.063909 -3.020363
2011-06-16 07:03:55 51°14.32 2°55.268 19.5364 0.01197 0.06391 -3.020363
2011-06-16 07:04:00 51°14.332 2°55.257 19.5365 0.01197 0.063911 -3.020363
2011-06-16 07:04:04 51°14.341 2°55.247 19.5514 0.01197 0.063911 -3.020363
2011-06-16 07:04:09 51°14.352 2°55.234 19.5405 0.01197 0.063911 -3.020363
2011-06-16 07:04:14 51°14.364 2°55.221 19.5207 0.01197 0.063911 -3.020363
2011-06-16 07:04:19 51°14.375 2°55.207 19.5298 0.01197 0.063913 -3.020363
2011-06-16 07:04:24 51°14.386 2°55.194 19.5302 0.01197 0.063914 -3.020363
2011-06-16 07:04:29 51°14.398 2°55.18 19.5407 0.01197 0.063915 -3.020363
2011-06-16 07:04:34 51°14.409 2°55.166 19.5544 0.01197 0.063915 -3.020363
2011-06-16 07:04:39 51°14.42 2°55.151 19.5023 0.01197 0.063915 -3.020363
2011-06-16 07:04:44 51°14.431 2°55.136 19.528 0.01197 0.063916 -3.020363
2011-06-16 07:04:49 51°14.443 2°55.121 19.5474 0.01197 0.063917 -3.020363
2011-06-16 07:04:54 51°14.454 2°55.106 19.5326 0.01197 0.063918 -3.020363
2011-06-16 07:04:59 51°14.465 2°55.091 19.5202 0.01197 0.063919 -3.020363
2011-06-16 07:05:04 51°14.477 2°55.076 19.5419 0.01197 0.063919 -3.020363
2011-06-16 07:05:08 51°14.486 2°55.064 19.5104 0.01197 0.063919 -3.020363
2011-06-16 07:05:13 51°14.497 2°55.049 19.5387 0.01197 0.06392 -3.020363
2011-06-16 07:05:18 51°14.509 2°55.033 19.5301 0.01197 0.063921 -3.020363
2011-06-16 07:05:23 51°14.52 2°55.017 19.553 0.01197 0.063922 -3.020363
2011-06-16 07:05:28 51°14.532 2°55.001 19.5329 0.01197 0.063923 -3.020363
2011-06-16 07:05:32 51°14.54 2°54.986 19.5285 0.01197 0.063923 -3.020363
2011-06-16 07:05:38 51°14.553 2°54.964 19.4842 0.01197 0.063924 -3.020363
2011-06-16 07:05:43 51°14.565 2°54.946 19.4684 0.01197 0.063925 -3.020363
2011-06-16 07:05:48 51°14.577 2°54.929 19.4764 0.01197 0.063926 -3.020363
2011-06-16 07:05:53 51°14.589 2°54.911 19.485 0.01197 0.063926 -3.020363
2011-06-16 07:05:57 51°14.599 2°54.899 19.4941 0.01197 0.063927 -3.020363
2011-06-16 07:06:02 51°14.613 2°54.884 19.508 0.01197 0.063927 -3.020363
2011-06-16 07:06:07 51°14.627 2°54.87 19.5345 0.01197 0.063927 -3.020363
2011-06-16 07:06:13 51°14.645 2°54.853 19.518 0.01197 0.063928 -3.020363
2011-06-16 07:06:17 51°14.656 2°54.841 19.5187 0.01197 0.063929 -3.020363
2011-06-16 07:06:22 51°14.671 2°54.826 19.538 0.01197 0.06393 -3.020363
2011-06-16 07:06:27 51°14.686 2°54.811 19.5424 0.01197 0.06393 -3.020363
2011-06-16 07:06:32 51°14.701 2°54.795 19.5352 0.01197 0.06393 -3.020363
2011-06-16 07:06:37 51°14.715 2°54.778 19.4757 0.01197 0.063931 -3.020363
2011-06-16 07:06:41 51°14.726 2°54.764 19.5118 0.01197 0.063933 -3.020363
2011-06-16 07:06:46 51°14.74 2°54.747 19.4797 0.01197 0.063934 -3.020363
2011-06-16 07:06:51 51°14.755 2°54.73 19.4701 0.01197 0.063934 -3.020363
2011-06-16 07:06:56 51°14.769 2°54.713 19.5102 0.01197 0.063935 -3.020363
2011-06-16 07:07:01 51°14.784 2°54.697 19.4967 0.01197 0.063935 -3.020363
2011-06-16 07:07:05 51°14.796 2°54.684 19.5161 0.01197 0.063936 -3.020363
2011-06-16 07:07:10 51°14.811 2°54.668 19.4875 0.01197 0.063937 -3.020363
2011-06-16 07:07:16 51°14.829 2°54.648 19.5253 0.01197 0.063938 -3.020363
2011-06-16 07:07:21 51°14.844 2°54.633 19.4619 0.01197 0.063938 -3.020363
2011-06-16 07:07:25 51°14.856 2°54.62 19.4848 0.01197 0.063939 -3.020363
2011-06-16 07:07:30 51°14.871 2°54.605 19.4994 0.01197 0.063939 -3.020363
2011-06-16 07:07:36 51°14.889 2°54.586 19.487 0.01197 0.06394 -3.020363
2011-06-16 07:07:41 51°14.904 2°54.57 19.5059 0.01197 0.063941 -3.020363
2011-06-16 07:07:45 51°14.916 2°54.558 19.4792 0.01197 0.063942 -3.020363
2011-06-16 07:07:50 51°14.931 2°54.542 19.4995 0.01197 0.063942 -3.020363
2011-06-16 07:07:55 51°14.946 2°54.527 19.5052 0.01197 0.063944 -3.020363
2011-06-16 07:08:00 51°14.961 2°54.512 19.497 0.01197 0.063944 -3.020363
2011-06-16 07:08:05 51°14.976 2°54.497 19.4917 0.01197 0.063945 -3.020363
2011-06-16 07:08:11 51°14.994 2°54.478 19.5032 0.01197 0.063946 -3.020363
2011-06-16 07:08:16 51°15.008 2°54.462 19.509 0.01197 0.063946 -3.020363
2011-06-16 07:08:21 51°15.023 2°54.446 19.4919 0.01197 0.063947 -3.020363
2011-06-16 07:08:26 51°15.038 2°54.431 19.4978 0.01197 0.063948 -3.020363
2011-06-16 07:08:30 51°15.05 2°54.418 19.5053 0.01197 0.063948 -3.020363
2011-06-16 07:08:36 51°15.067 2°54.398 19.5085 0.01197 0.063949 -3.020363
2011-06-16 07:08:41 51°15.082 2°54.381 19.5094 0.01197 0.06395 -3.020363
2011-06-16 07:08:46 51°15.096 2°54.364 19.4981 0.01197 0.06395 -3.020363
2011-06-16 07:08:51 51°15.11 2°54.346 19.5141 0.01197 0.063951 -3.020363
2011-06-16 07:08:56 51°15.124 2°54.329 19.4723 0.01197 0.063952 -3.020363
2011-06-16 07:09:01 51°15.138 2°54.31 19.4939 0.01197 0.063952 -3.020363
2011-06-16 07:09:06 51°15.152 2°54.292 19.4861 0.01197 0.063953 -3.020363
2011-06-16 07:09:10 51°15.163 2°54.278 19.4685 0.01197 0.063954 -3.020363
2011-06-16 07:09:16 51°15.179 2°54.255 19.4772 0.01197 0.063954 -3.020363
2011-06-16 07:09:21 51°15.193 2°54.237 19.4904 0.01197 0.063955 -3.020363
2011-06-16 07:09:26 51°15.207 2°54.218 19.4674 0.01197 0.063956 -3.020363
2011-06-16 07:09:30 51°15.218 2°54.204 19.4702 0.01197 0.063956 -3.020363
2011-06-16 07:09:36 51°15.235 2°54.183 19.4774 0.01197 0.063957 -3.020363
2011-06-16 07:09:41 51°15.249 2°54.166 19.4796 0.01197 0.063958 -3.020363
2011-06-16 07:09:46 51°15.264 2°54.149 19.4935 0.01197 0.063958 -3.020363
2011-06-16 07:09:50 51°15.275 2°54.135 19.49 0.01197 0.063959 -3.020363
2011-06-16 07:09:55 51°15.29 2°54.119 19.4896 0.01197 0.06396 -3.020363
2011-06-16 07:10:01 51°15.308 2°54.1 19.4843 0.01197 0.06396 -3.020363
2011-06-16 07:10:06 51°15.322 2°54.084 19.498 0.01197 0.063961 -3.020363
2011-06-16 07:10:11 51°15.337 2°54.068 19.5041 0.01197 0.063962 -3.020363
2011-06-16 07:10:16 51°15.351 2°54.051 19.5031 0.01197 0.063962 -3.020363
2011-06-16 07:10:21 51°15.366 2°54.034 19.5022 0.01197 0.063963 -3.020363
2011-06-16 07:10:26 51°15.38 2°54.017 19.5097 0.01197 0.063965 -3.020363
2011-06-16 07:10:31 51°15.394 2°53.999 19.5145 0.01197 0.063965 -3.020363
2011-06-16 07:10:36 51°15.408 2°53.981 19.503 0.01197 0.063965 -3.020363
2011-06-16 07:10:41 51°15.422 2°53.963 19.4976 0.01197 0.063966 -3.020363
2011-06-16 07:10:46 51°15.435 2°53.944 19.5025 0.01197 0.063966 -3.020363
2011-06-16 07:10:51 51°15.449 2°53.926 19.4881 0.01197 0.063967 -3.020363
2011-06-16 07:10:56 51°15.462 2°53.907 19.4616 0.01197 0.063968 -3.020363
2011-06-16 07:11:01 51°15.476 2°53.887 19.4855 0.01197 0.063968 -3.020363
2011-06-16 07:11:06 51°15.489 2°53.869 19.4975 0.01197 0.063969 -3.020363
2011-06-16 07:11:11 51°15.503 2°53.85 19.4787 0.01197 0.06397 -3.020363
2011-06-16 07:11:16 51°15.516 2°53.831 19.487 0.01197 0.06397 -3.020363
2011-06-16 07:11:21 51°15.53 2°53.812 19.4822 0.01197 0.063972 -3.020363
2011-06-16 07:11:26 51°15.543 2°53.794 19.4953 0.01197 0.063972 -3.020363
2011-06-16 07:11:30 51°15.555 2°53.779 19.4792 0.01197 0.063972 -3.020363
2011-06-16 07:11:35 51°15.568 2°53.76 19.4803 0.01197 0.063973 -3.020363
2011-06-16 07:11:41 51°15.584 2°53.738 19.4936 0.01197 0.063974 -3.020363
2011-06-16 07:11:46 51°15.598 2°53.719 19.4874 0.01197 0.063975 -3.020363
2011-06-16 07:11:50 51°15.609 2°53.704 19.4673 0.01197 0.063976 -3.020363
2011-06-16 07:11:55 51°15.623 2°53.686 19.4883 0.01197 0.063977 -3.020363
2011-06-16 07:12:01 51°15.639 2°53.664 19.4727 0.01197 0.063977 -3.020363
2011-06-16 07:12:06 51°15.654 2°53.647 19.4848 0.01197 0.063977 -3.020363
2011-06-16 07:12:10 51°15.665 2°53.634 19.4797 0.01197 0.063978 -3.020363
2011-06-16 07:12:16 51°15.682 2°53.613 19.5068 0.01197 0.063979 -3.020363
2011-06-16 07:12:20 51°15.694 2°53.601 19.4794 0.01197 0.06398 -3.020363
2011-06-16 07:12:26 51°15.711 2°53.581 19.4995 0.01197 0.063981 -3.020363
2011-06-16 07:12:30 51°15.723 2°53.567 19.4858 0.01197 0.063981 -3.020363
2011-06-16 07:12:36 51°15.741 2°53.547 19.5058 0.01197 0.063982 -3.020363
2011-06-16 07:12:41 51°15.755 2°53.531 19.4872 0.01197 0.063983 -3.020363
2011-06-16 07:12:47 51°15.772 2°53.51 19.5128 0.01197 0.063984 -3.020363
2011-06-16 07:12:51 51°15.783 2°53.496 19.492 0.01197 0.063985 -3.020363
2011-06-16 07:12:56 51°15.797 2°53.478 19.4946 0.01197 0.063986 -3.020363
2011-06-16 07:13:01 51°15.811 2°53.459 19.4965 0.01197 0.063986 -3.020363
2011-06-16 07:13:06 51°15.824 2°53.44 19.4753 0.01197 0.063987 -3.020363
2011-06-16 07:13:11 51°15.837 2°53.422 19.4815 0.01197 0.063988 -3.020363
2011-06-16 07:13:16 51°15.851 2°53.402 19.4821 0.01197 0.063989 -3.020363
2011-06-16 07:13:21 51°15.864 2°53.383 19.4763 0.01197 0.063989 -3.020363
2011-06-16 07:13:26 51°15.878 2°53.365 19.468 0.01197 0.063991 -3.020363
2011-06-16 07:13:31 51°15.891 2°53.346 19.4676 0.01197 0.063991 -3.020363
2011-06-16 07:13:35 51°15.902 2°53.331 19.49 0.01197 0.063992 -3.020363
2011-06-16 07:13:41 51°15.919 2°53.311 19.4557 0.01197 0.063993 -3.020363
2011-06-16 07:13:46 51°15.934 2°53.295 19.4757 0.01197 0.063993 -3.020363
2011-06-16 07:13:51 51°15.948 2°53.28 19.4535 0.01197 0.063994 -3.020363
2011-06-16 07:13:56 51°15.963 2°53.264 19.49 0.01197 0.063995 -3.020363
2011-06-16 07:14:01 51°15.978 2°53.25 19.4898 0.01197 0.063995 -3.020363
2011-06-16 07:14:06 51°15.993 2°53.236 19.4971 0.01197 0.063996 -3.020363
2011-06-16 07:14:11 51°16.008 2°53.222 19.491 0.01197 0.063997 -3.020363
2011-06-16 07:14:16 51°16.024 2°53.209 19.498 0.01197 0.063999 -3.020363
2011-06-16 07:14:21 51°16.039 2°53.195 19.5063 0.01197 0.064 -3.020363
2011-06-16 07:14:26 51°16.054 2°53.181 19.487 0.01197 0.064001 -3.020363
2011-06-16 07:14:31 51°16.07 2°53.167 19.5022 0.01197 0.064001 -3.020363
2011-06-16 07:14:36 51°16.085 2°53.153 19.4838 0.01197 0.064002 -3.020363
2011-06-16 07:14:40 51°16.097 2°53.141 19.5109 0.01197 0.064003 -3.020363
2011-06-16 07:14:45 51°16.111 2°53.126 19.5108 0.01197 0.064005 -3.020363
2011-06-16 07:14:51 51°16.129 2°53.108 19.5028 0.01197 0.064006 -3.020363
2011-06-16 07:14:56 51°16.144 2°53.092 19.4879 0.01197 0.064007 -3.020363
2011-06-16 07:15:00 51°16.155 2°53.079 19.4771 0.01197 0.064007 -3.020363
2011-06-16 07:15:05 51°16.17 2°53.063 19.4958 0.01197 0.064009 -3.020363
2011-06-16 07:15:10 51°16.186 2°53.045 19.4922 0.01197 0.064009 -3.020363
2011-06-16 07:15:16 51°16.203 2°53.025 19.4868 0.01197 0.064011 -3.020363
2011-06-16 07:15:21 51°16.218 2°53.009 19.4902 0.01197 0.064012 -3.020363
2011-06-16 07:15:26 51°16.232 2°52.993 19.4768 0.01197 0.064013 -3.020363
2011-06-16 07:15:31 51°16.247 2°52.978 19.4523 0.01197 0.064013 -3.020363
2011-06-16 07:15:36 51°16.262 2°52.963 19.4872 0.01197 0.064014 -3.020363
2011-06-16 07:15:41 51°16.278 2°52.95 19.4919 0.01197 0.064015 -3.020363
2011-06-16 07:15:46 51°16.293 2°52.937 19.4819 0.01197 0.064017 -3.020363
2011-06-16 07:15:51 51°16.308 2°52.924 19.491 0.01197 0.064017 -3.020363
2011-06-16 07:15:56 51°16.324 2°52.911 19.4823 0.01197 0.064019 -3.020363
2011-06-16 07:16:01 51°16.338 2°52.9 19.4901 0.01197 0.064019 -3.020363
2011-06-16 07:16:05 51°16.35 2°52.889 19.4949 0.01197 0.06402 -3.020363
2011-06-16 07:16:10 51°16.365 2°52.878 19.4825 0.01197 0.064021 -3.020363
2011-06-16 07:16:15 51°16.381 2°52.869 19.5014 0.01197 0.064023 -3.020363
2011-06-16 07:16:20 51°16.398 2°52.857 19.4771 0.01197 0.064024 -3.020363
2011-06-16 07:16:25 51°16.414 2°52.846 19.4824 0.01197 0.064025 -3.020363
2011-06-16 07:16:29 51°16.427 2°52.838 19.4924 0.01197 0.064025 -3.020363
2011-06-16 07:16:36 51°16.449 2°52.823 19.4857 0.01197 0.064027 -3.020363
2011-06-16 07:16:41 51°16.465 2°52.812 19.4749 0.01197 0.064028 -3.020363
2011-06-16 07:16:46 51°16.481 2°52.803 19.499 0.01197 0.064029 -3.020363
2011-06-16 07:16:50 51°16.494 2°52.795 19.5001 0.01197 0.06403 -3.020363
2011-06-16 07:16:56 51°16.513 2°52.783 19.4935 0.01197 0.064032 -3.020363
2011-06-16 07:17:00 51°16.525 2°52.775 19.5074 0.01197 0.064032 -3.020363
2011-06-16 07:17:06 51°16.544 2°52.761 19.4889 0.01197 0.064033 -3.020363
2011-06-16 07:17:11 51°16.56 2°52.75 19.4951 0.01197 0.064034 -3.020363
2011-06-16 07:17:16 51°16.576 2°52.737 19.4959 0.01197 0.064036 -3.020363
2011-06-16 07:17:21 51°16.592 2°52.725 19.4832 0.01197 0.064037 -3.020363
2011-06-16 07:17:26 51°16.607 2°52.713 19.488 0.01197 0.064038 -3.020363
2011-06-16 07:17:30 51°16.62 2°52.704 19.4635 0.01197 0.064038 -3.020363
2011-06-16 07:17:35 51°16.635 2°52.693 19.4859 0.01197 0.064038 -3.020363
2011-06-16 07:17:40 51°16.651 2°52.682 19.4916 0.01197 0.064041 -3.020363
2011-06-16 07:17:46 51°16.67 2°52.671 19.4915 0.01197 0.064041 -3.020363
2011-06-16 07:17:50 51°16.683 2°52.663 19.4891 0.01197 0.064042 -3.020363
2011-06-16 07:17:55 51°16.699 2°52.654 19.5099 0.01197 0.064044 -3.020363
2011-06-16 07:18:01 51°16.719 2°52.644 19.4707 0.01197 0.064044 -3.020363
2011-06-16 07:18:06 51°16.735 2°52.637 19.4982 0.01197 0.064045 -3.020363
2011-06-16 07:18:10 51°16.748 2°52.63 19.5061 0.01197 0.064046 -3.020363
2011-06-16 07:18:16 51°16.767 2°52.621 19.4924 0.01197 0.064047 -3.020363
2011-06-16 07:18:20 51°16.779 2°52.615 19.5078 0.01197 0.064049 -3.020363
2011-06-16 07:18:25 51°16.795 2°52.607 19.5053 0.01197 0.064049 -3.020363
2011-06-16 07:18:31 51°16.814 2°52.597 19.5136 0.01197 0.064049 -3.020363
2011-06-16 07:18:35 51°16.826 2°52.589 19.4937 0.01197 0.064051 -3.020363
2011-06-16 07:18:41 51°16.845 2°52.578 19.4923 0.01197 0.064053 -3.020363
2011-06-16 07:18:46 51°16.861 2°52.567 19.4696 0.01197 0.064053 -3.020363
2011-06-16 07:18:51 51°16.877 2°52.558 19.4868 0.01197 0.064055 -3.020363
2011-06-16 07:18:56 51°16.892 2°52.549 19.4793 0.01197 0.064056 -3.020363
2011-06-16 07:19:01 51°16.908 2°52.54 19.4928 0.01197 0.064056 -3.020363
2011-06-16 07:19:06 51°16.924 2°52.532 19.4915 0.01197 0.064057 -3.020363
2011-06-16 07:19:11 51°16.94 2°52.524 19.4872 0.01197 0.064058 -3.020363
2011-06-16 07:19:15 51°16.953 2°52.519 19.4831 0.01197 0.064059 -3.020363
2011-06-16 07:19:20 51°16.969 2°52.512 19.5008 0.01197 0.06406 -3.020363
2011-06-16 07:19:26 51°16.989 2°52.506 19.5089 0.01197 0.064061 -3.020363
2011-06-16 07:19:31 51°17.005 2°52.5 19.5133 0.01197 0.064061 -3.020363
2011-06-16 07:19:35 51°17.018 2°52.496 19.5113 0.01197 0.064062 -3.020363
2011-06-16 07:19:41 51°17.037 2°52.49 19.5151 0.01197 0.064063 -3.020363
2011-06-16 07:19:46 51°17.054 2°52.485 19.5164 0.01197 0.064064 -3.020363
2011-06-16 07:19:51 51°17.07 2°52.479 19.5159 0.01197 0.064065 -3.020363
2011-06-16 07:19:55 51°17.082 2°52.474 19.5245 0.01197 0.064066 -3.020363
2011-06-16 07:20:01 51°17.102 2°52.466 19.5193 0.01197 0.064066 -3.020363
2011-06-16 07:20:06 51°17.118 2°52.459 19.4907 0.01197 0.064068 -3.020363
2011-06-16 07:20:11 51°17.134 2°52.451 19.5073 0.01197 0.064069 -3.020363
2011-06-16 07:20:16 51°17.15 2°52.444 19.5206 0.01197 0.06407 -3.020363
2011-06-16 07:20:21 51°17.166 2°52.436 19.5143 0.01197 0.064071 -3.020363
2011-06-16 07:20:26 51°17.182 2°52.428 19.4993 0.01197 0.064072 -3.020363
2011-06-16 07:20:31 51°17.198 2°52.419 19.5201 0.01197 0.064072 -3.020363
2011-06-16 07:20:35 51°17.211 2°52.412 19.5187 0.01197 0.064073 -3.020363
2011-06-16 07:20:41 51°17.23 2°52.402 19.5234 0.01197 0.064074 -3.020363
2011-06-16 07:20:46 51°17.246 2°52.393 19.4854 0.01197 0.064074 -3.020363
2011-06-16 07:20:51 51°17.262 2°52.385 19.4802 0.01197 0.064075 -3.020363
2011-06-16 07:20:55 51°17.275 2°52.38 19.499 0.01197 0.064076 -3.020363
2011-06-16 07:21:01 51°17.295 2°52.375 19.4991 0.01197 0.064076 -3.020363
2011-06-16 07:21:06 51°17.311 2°52.371 19.4985 0.01197 0.064077 -3.020363
2011-06-16 07:21:11 51°17.327 2°52.369 19.5038 0.01197 0.064077 -3.020363
2011-06-16 07:21:15 51°17.34 2°52.368 19.4888 0.01197 0.064078 -3.020363
2011-06-16 07:21:21 51°17.36 2°52.368 19.5206 0.01197 0.064078 -3.020363
2011-06-16 07:21:26 51°17.376 2°52.369 19.4927 0.01197 0.064079 -3.020363
2011-06-16 07:21:31 51°17.393 2°52.37 19.5207 0.01197 0.064079 -3.020363
2011-06-16 07:21:35 51°17.406 2°52.372 19.5067 0.01197 0.06408 -3.020363
2011-06-16 07:21:40 51°17.422 2°52.374 19.5276 0.01197 0.064081 -3.020363
2011-06-16 07:21:46 51°17.441 2°52.378 19.4938 0.01197 0.064082 -3.020363
2011-06-16 07:21:51 51°17.457 2°52.381 19.5023 0.01197 0.064082 -3.020363
2011-06-16 07:21:55 51°17.47 2°52.386 19.5017 0.01197 0.064082 -3.020363
2011-06-16 07:22:00 51°17.486 2°52.394 19.5171 0.01197 0.064082 -3.020363
2011-06-16 07:22:06 51°17.504 2°52.405 19.519 0.01197 0.064083 -3.020363
2011-06-16 07:22:11 51°17.518 2°52.415 19.5239 0.01197 0.064085 -3.020363
2011-06-16 07:22:15 51°17.529 2°52.424 19.5041 0.01197 0.064085 -3.020363
2011-06-16 07:22:20 51°17.544 2°52.435 19.5233 0.01197 0.064086 -3.020363
2011-06-16 07:22:25 51°17.558 2°52.448 19.5222 0.01197 0.064086 -3.020363
2011-06-16 07:22:30 51°17.572 2°52.46 19.5364 0.01197 0.064086 -3.020363
2011-06-16 07:22:36 51°17.588 2°52.476 19.5133 0.01197 0.064087 -3.020363
2011-06-16 07:22:41 51°17.602 2°52.49 19.5169 0.01197 0.064088 -3.020363
2011-06-16 07:22:46 51°17.616 2°52.504 19.5193 0.01197 0.064089 -3.020363
2011-06-16 07:22:51 51°17.629 2°52.519 19.5304 0.01197 0.06409 -3.020363
2011-06-16 07:22:56 51°17.642 2°52.534 19.5369 0.01197 0.06409 -3.020363
2011-06-16 07:23:00 51°17.652 2°52.546 19.5163 0.01197 0.06409 -3.020363
2011-06-16 07:23:06 51°17.668 2°52.565 19.5403 0.01197 0.06409 -3.020363
2011-06-16 07:23:11 51°17.68 2°52.581 19.5328 0.01197 0.064091 -3.020363
2011-06-16 07:23:15 51°17.69 2°52.594 19.5371 0.01197 0.064092 -3.020363
2011-06-16 07:23:20 51°17.703 2°52.611 19.5275 0.01197 0.064093 -3.020363
2011-06-16 07:23:25 51°17.715 2°52.628 19.52 0.01197 0.064094 -3.020363
2011-06-16 07:23:31 51°17.73 2°52.648 19.5338 0.01197 0.064094 -3.020363
2011-06-16 07:23:36 51°17.742 2°52.666 19.5436 0.01197 0.064094 -3.020363
2011-06-16 07:23:40 51°17.751 2°52.68 19.5379 0.01197 0.064095 -3.020363
2011-06-16 07:23:44 51°17.761 2°52.694 19.5487 0.01197 0.064095 -3.020363
2011-06-16 07:23:51 51°17.778 2°52.718 19.5359 0.01197 0.064096 -3.020363
2011-06-16 07:23:56 51°17.79 2°52.735 19.5258 0.01197 0.064097 -3.020363
2011-06-16 07:24:01 51°17.802 2°52.752 19.5521 0.01197 0.064097 -3.020363
2011-06-16 07:24:05 51°17.811 2°52.766 19.5433 0.01197 0.064098 -3.020363
2011-06-16 07:24:10 51°17.823 2°52.782 19.5462 0.01197 0.064098 -3.020363
2011-06-16 07:24:16 51°17.838 2°52.803 19.5197 0.01197 0.064098 -3.020363
2011-06-16 07:24:21 51°17.85 2°52.819 19.5662 0.01197 0.064099 -3.020363
2011-06-16 07:24:25 51°17.86 2°52.834 19.5178 0.01197 0.0641 -3.020363
2011-06-16 07:24:31 51°17.875 2°52.854 19.5369 0.01197 0.0641 -3.020363
2011-06-16 07:24:36 51°17.887 2°52.872 19.5442 0.01197 0.0641 -3.020363
2011-06-16 07:24:41 51°17.898 2°52.89 19.5569 0.01197 0.064101 -3.020363
2011-06-16 07:24:45 51°17.907 2°52.905 19.5253 0.01197 0.064102 -3.020363
2011-06-16 07:24:51 51°17.921 2°52.928 19.5569 0.01197 0.064102 -3.020363
2011-06-16 07:24:56 51°17.932 2°52.947 19.5533 0.01197 0.064102 -3.020363
2011-06-16 07:25:01 51°17.943 2°52.966 19.5558 0.01197 0.064102 -3.020363
2011-06-16 07:25:05 51°17.952 2°52.981 19.537 0.01197 0.064103 -3.020363
2011-06-16 07:25:11 51°17.966 2°53.003 19.5663 0.01197 0.064104 -3.020363
2011-06-16 07:25:16 51°17.976 2°53.022 19.5556 0.01197 0.064105 -3.020363
2011-06-16 07:25:21 51°17.988 2°53.039 19.5616 0.01197 0.064105 -3.020363
2011-06-16 07:25:26 51°18 2°53.058 19.5456 0.01197 0.064106 -3.020363
2011-06-16 07:25:31 51°18.012 2°53.075 19.5716 0.01197 0.064106 -3.020363
2011-06-16 07:25:36 51°18.024 2°53.093 19.5553 0.01197 0.064106 -3.020363
2011-06-16 07:25:40 51°18.033 2°53.106 19.5717 0.01197 0.064107 -3.020363
2011-06-16 07:25:46 51°18.046 2°53.127 19.5622 0.01197 0.064107 -3.020363
2011-06-16 07:25:51 51°18.059 2°53.143 19.5645 0.01197 0.064108 -3.020363
2011-06-16 07:25:56 51°18.071 2°53.16 19.5704 0.01197 0.064109 -3.020363
2011-06-16 07:26:00 51°18.081 2°53.173 19.5651 0.01197 0.064109 -3.020363
2011-06-16 07:26:06 51°18.095 2°53.194 19.5587 0.01197 0.064109 -3.020363
2011-06-16 07:26:10 51°18.105 2°53.207 19.5644 0.01197 0.06411 -3.020363
2011-06-16 07:26:15 51°18.118 2°53.224 19.5533 0.01197 0.06411 -3.020363
2011-06-16 07:26:20 51°18.13 2°53.24 19.567 0.01197 0.06411 -3.020363
2011-06-16 07:26:26 51°18.144 2°53.262 19.5242 0.01197 0.06411 -3.020363
2011-06-16 07:26:31 51°18.156 2°53.279 18.8322 0.01197 0.06411 -3.020363
2011-06-16 07:26:36 51°18.167 2°53.297 17.5452 0.01197 0.064106 -3.020363
2011-06-16 07:26:41 51°18.179 2°53.315 17.2509 0.01197 0.064143 -3.020363
2011-06-16 07:26:46 51°18.19 2°53.334 17.0209 0.369546 2.117008 -3.020363
2011-06-16 07:26:51 51°18.201 2°53.352 16.7354 4.607261 33.154871 -3.020363
2011-06-16 07:26:55 51°18.21 2°53.367 16.6129 4.733557 34.343682 -3.020363
2011-06-16 07:27:01 51°18.222 2°53.391 16.5303 4.733557 34.343682 -3.020363
2011-06-16 07:27:06 51°18.233 2°53.41 16.5418 4.644214 34.148784 -3.020363
2011-06-16 07:27:11 51°18.244 2°53.429 16.4713 4.591925 34.119007 -3.020363
2011-06-16 07:27:16 51°18.255 2°53.448 16.4058 4.536221 34.253496 -3.020363
2011-06-16 07:27:21 51°18.265 2°53.467 16.4016 4.49307 34.224981 -3.020363
2011-06-16 07:27:26 51°18.277 2°53.485 16.3829 4.454902 34.246005 -3.020363
2011-06-16 07:27:31 51°18.288 2°53.503 16.376 4.454902 34.246005 -3.020363
2011-06-16 07:27:36 51°18.3 2°53.52 16.359 4.429286 34.25823 -3.020363
2011-06-16 07:27:41 51°18.312 2°53.538 16.3568 4.426384 34.37299 -3.020363
2011-06-16 07:27:46 51°18.323 2°53.556 16.3326 4.410413 34.347793 -3.020363
2011-06-16 07:27:51 51°18.335 2°53.573 16.3372 4.395272 34.309731 -3.020363
2011-06-16 07:27:55 51°18.345 2°53.587 16.3194 4.39268 34.351571 -3.020363
2011-06-16 07:28:01 51°18.359 2°53.607 16.3052 4.39268 34.351571 -3.020363
2011-06-16 07:28:06 51°18.371 2°53.623 16.2955 4.385213 34.330674 -3.020363
2011-06-16 07:28:11 51°18.383 2°53.64 16.308 4.38065 34.321293 -3.020363
2011-06-16 07:28:15 51°18.393 2°53.654 16.3188 4.388014 34.408194 -3.020363
2011-06-16 07:28:21 51°18.407 2°53.674 16.342 4.384696 34.409802 -3.020363
2011-06-16 07:28:26 51°18.419 2°53.692 16.3124 4.381688 34.398065 -3.020363
2011-06-16 07:28:31 51°18.43 2°53.71 16.312 4.381688 34.398065 -3.020363
2011-06-16 07:28:36 51°18.441 2°53.728 16.3028 4.375881 34.36451 -3.020363
2011-06-16 07:28:41 51°18.453 2°53.747 16.3177 4.380963 34.427382 -3.020363
2011-06-16 07:28:46 51°18.463 2°53.765 16.3102 4.377229 34.403652 -3.020363
2011-06-16 07:28:51 51°18.474 2°53.784 16.3065 4.374222 34.377899 -3.020363
2011-06-16 07:28:55 51°18.483 2°53.799 16.3011 4.378266 34.413475 -3.020363
2011-06-16 07:29:01 51°18.496 2°53.822 16.2981 4.378266 34.413475 -3.020363
2011-06-16 07:29:06 51°18.507 2°53.841 16.308 4.372977 34.371852 -3.020363
2011-06-16 07:29:11 51°18.517 2°53.86 16.3018 4.377126 34.413249 -3.020363
2011-06-16 07:29:15 51°18.525 2°53.876 16.3102 4.377126 34.418156 -3.020363
2011-06-16 07:29:21 51°18.537 2°53.9 16.3117 4.377126 34.419558 -3.020363
2011-06-16 07:29:26 51°18.547 2°53.921 16.3118 4.374741 34.404174 -3.020363
2011-06-16 07:29:31 51°18.556 2°53.941 16.3026 4.374741 34.404174 -3.020363
2011-06-16 07:29:36 51°18.565 2°53.963 16.3035 4.375363 34.41526 -3.020363
2011-06-16 07:29:40 51°18.572 2°53.979 16.3005 4.374326 34.406132 -3.020363
2011-06-16 07:29:46 51°18.582 2°54.005 16.3125 4.373392 34.400019 -3.020363
2011-06-16 07:29:51 51°18.591 2°54.027 16.3104 4.377334 34.43401 -3.020363
2011-06-16 07:29:55 51°18.598 2°54.045 16.3056 4.377022 34.431271 -3.020363
2011-06-16 07:30:00 51°18.606 2°54.066 16.3093 4.377022 34.431271 -3.020363
2011-06-16 07:30:06 51°18.617 2°54.092 16.309 4.37723 34.435202 -3.020363
2011-06-16 07:30:11 51°18.626 2°54.113 16.3026 4.376919 34.43527 -3.020363
2011-06-16 07:30:16 51°18.635 2°54.134 16.3067 4.377126 34.439904 -3.020363
2011-06-16 07:30:21 51°18.644 2°54.155 16.315 4.376504 34.434425 -3.020363
2011-06-16 07:30:26 51°18.654 2°54.175 16.3143 4.376608 34.435338 -3.020363
2011-06-16 07:30:31 51°18.663 2°54.195 16.3257 4.376608 34.435338 -3.020363
2011-06-16 07:30:36 51°18.673 2°54.215 16.3201 4.3764 34.434214 -3.020363
2011-06-16 07:30:40 51°18.681 2°54.231 16.3237 4.376297 34.435407 -3.020363
2011-06-16 07:30:46 51°18.693 2°54.255 16.3162 4.375674 34.430629 -3.020363
2011-06-16 07:30:51 51°18.703 2°54.275 16.3218 4.375467 34.428803 -3.020363
2011-06-16 07:30:56 51°18.713 2°54.295 16.3262 4.373807 34.41349 -3.020363
2011-06-16 07:31:00 51°18.721 2°54.311 16.3229 4.373807 34.41349 -3.020363
2011-06-16 07:31:06 51°18.733 2°54.335 16.3221 4.375156 34.422554 -3.020363
2011-06-16 07:31:11 51°18.743 2°54.355 16.3265 4.374844 34.417008 -3.020363
2011-06-16 07:31:16 51°18.753 2°54.375 16.332 4.373807 34.407177 -3.020363
2011-06-16 07:31:21 51°18.762 2°54.396 16.3258 4.371422 34.38688 -3.020363
2011-06-16 07:31:25 51°18.769 2°54.412 16.3242 4.371111 34.382739 -3.020363
2011-06-16 07:31:31 51°18.781 2°54.437 16.3267 4.371111 34.382739 -3.020363
2011-06-16 07:31:36 51°18.791 2°54.457 16.3303 4.369348 34.36582 -3.020363
2011-06-16 07:31:40 51°18.799 2°54.473 16.3286 4.367999 34.354655 -3.020363
2011-06-16 07:31:45 51°18.809 2°54.492 16.3329 4.369037 34.363082 -3.020363
2011-06-16 07:31:50 51°18.819 2°54.512 16.3335 4.367688 34.349816 -3.020363
2011-06-16 07:31:56 51°18.831 2°54.536 16.3347 4.367792 34.351429 -3.020363
2011-06-16 07:32:00 51°18.839 2°54.552 16.3299 4.367792 34.351429 -3.020363
2011-06-16 07:32:05 51°18.849 2°54.571 16.3323 4.367585 34.350304 -3.020363
2011-06-16 07:32:10 51°18.859 2°54.591 16.3338 4.368414 34.356905 -3.020363
2011-06-16 07:32:16 51°18.871 2°54.615 16.3318 4.368518 34.357818 -3.020363
2011-06-16 07:32:20 51°18.879 2°54.631 16.3354 4.368725 34.358243 -3.020363
2011-06-16 07:32:25 51°18.889 2°54.651 16.3365 4.366444 34.336765 -3.020363
2011-06-16 07:32:31 51°18.901 2°54.675 16.3355 4.366444 34.336765 -3.020363
2011-06-16 07:32:36 51°18.911 2°54.695 16.3402 4.369037 34.358881 -3.020363
2011-06-16 07:32:40 51°18.918 2°54.712 16.3411 4.36914 34.360493 -3.020363
2011-06-16 07:32:46 51°18.929 2°54.737 16.345 4.369244 34.362106 -3.020363
2011-06-16 07:32:51 51°18.938 2°54.758 16.3438 4.367896 34.350242 -3.020363
2011-06-16 07:32:56 51°18.947 2°54.779 16.3479 4.367273 34.344066 -3.020363
2011-06-16 07:33:00 51°18.953 2°54.796 16.3467 4.367273 34.344066 -3.020363
2011-06-16 07:33:06 51°18.963 2°54.822 16.3477 4.367999 34.349054 -3.020363
2011-06-16 07:33:10 51°18.97 2°54.839 16.3509 4.368933 34.355868 -3.020363
2011-06-16 07:33:16 51°18.98 2°54.865 16.3517 4.368829 34.353555 -3.020363
2011-06-16 07:33:20 51°18.987 2°54.882 16.3507 4.367066 34.336643 -3.020363
2011-06-16 07:33:25 51°18.996 2°54.903 16.3541 4.364577 34.312649 -3.020363
2011-06-16 07:33:31 51°19.006 2°54.929 16.3532 4.364577 34.312649 -3.020363
2011-06-16 07:33:36 51°19.015 2°54.949 16.3565 4.363955 34.306476 -3.020363
2011-06-16 07:33:41 51°19.024 2°54.97 16.3575 4.359184 34.263819 -3.020363
2011-06-16 07:33:45 51°19.031 2°54.986 16.3606 4.365303 34.316938 -3.020363
2011-06-16 07:33:51 51°19.042 2°55.01 16.3626 4.365718 34.319888 -3.020363
2011-06-16 07:33:56 51°19.051 2°55.031 16.3666 4.36551 34.316665 -3.020363
2011-06-16 07:34:01 51°19.06 2°55.052 16.3772 4.36551 34.316665 -3.020363
2011-06-16 07:34:05 51°19.067 2°55.068 16.3858 4.365095 34.312318 -3.020363
2011-06-16 07:34:10 51°19.076 2°55.089 16.403 4.363228 34.294502 -3.020363
2011-06-16 07:34:16 51°19.087 2°55.114 16.4173 4.360117 34.265746 -3.020363
2011-06-16 07:34:21 51°19.095 2°55.134 16.4296 4.355347 34.221712 -3.020363
2011-06-16 07:34:25 51°19.102 2°55.151 16.4371 4.349954 34.172222 -3.020363
2011-06-16 07:34:30 51°19.111 2°55.171 16.4426 4.349954 34.172222 -3.020363
2011-06-16 07:34:35 51°19.12 2°55.192 16.4547 4.346013 34.134116 -3.020363
2011-06-16 07:34:40 51°19.129 2°55.213 16.4643 4.33979 34.073904 -3.020363
2011-06-16 07:34:45 51°19.138 2°55.233 16.4752 4.33699 34.037537 -3.020363
2011-06-16 07:34:51 51°19.149 2°55.257 16.4852 4.329834 33.965058 -3.020363
2011-06-16 07:34:56 51°19.159 2°55.276 16.4908 4.326101 33.921269 -3.020363
2011-06-16 07:35:01 51°19.168 2°55.296 16.5012 4.326101 33.921269 -3.020363
2011-06-16 07:35:06 51°19.179 2°55.315 16.5069 4.320293 33.860713 -3.020363
2011-06-16 07:35:10 51°19.187 2°55.329 16.5205 4.317493 33.827238 -3.020363
2011-06-16 07:35:15 51°19.197 2°55.349 16.5269 4.316353 33.809689 -3.020363
2011-06-16 07:35:21 51°19.21 2°55.371 16.5326 4.312619 33.766021 -3.020363
2011-06-16 07:35:26 51°19.22 2°55.39 16.5428 4.309404 33.728978 -3.020363
2011-06-16 07:35:30 51°19.228 2°55.404 16.5503 4.309404 33.728978 -3.020363
2011-06-16 07:35:35 51°19.239 2°55.423 16.5603 4.307227 33.702398 -3.020363
2011-06-16 07:35:40 51°19.249 2°55.442 16.5672 4.305671 33.680591 -3.020363
2011-06-16 07:35:46 51°19.261 2°55.465 16.5743 4.299138 33.613918 -3.020363
2011-06-16 07:35:50 51°19.269 2°55.479 16.5796 4.29302 33.552963 -3.020363
2011-06-16 07:35:55 51°19.28 2°55.498 16.5845 4.291361 33.529633 -3.020363
2011-06-16 07:36:01 51°19.29 2°55.523 16.5912 4.291361 33.529633 -3.020363
2011-06-16 07:36:06 51°19.299 2°55.544 16.5961 4.284517 33.462409 -3.020363
2011-06-16 07:36:11 51°19.307 2°55.565 16.6013 4.28348 33.44455 -3.020363
2011-06-16 07:36:16 51°19.314 2°55.587 16.6046 4.275288 33.365641 -3.020363
2011-06-16 07:36:21 51°19.32 2°55.61 16.6094 4.272903 33.336068 -3.020363
2011-06-16 07:36:26 51°19.327 2°55.632 16.6121 4.269896 33.303112 -3.020363
2011-06-16 07:36:30 51°19.332 2°55.65 16.6133 4.269896 33.303112 -3.020363
2011-06-16 07:36:35 51°19.337 2°55.674 16.6132 4.266992 33.272422 -3.020363
2011-06-16 07:36:40 51°19.343 2°55.697 16.6138 4.26243 33.22595 -3.020363
2011-06-16 07:36:46 51°19.349 2°55.725 16.6118 4.258801 33.188972 -3.020363
2011-06-16 07:36:51 51°19.355 2°55.748 16.6114 4.258593 33.183141 -3.020363
2011-06-16 07:36:56 51°19.361 2°55.771 16.6138 4.25372 33.136026 -3.020363
2011-06-16 07:37:00 51°19.366 2°55.79 16.6111 4.25372 33.136026 -3.020363
2011-06-16 07:37:06 51°19.373 2°55.818 16.6123 4.254549 33.140567 -3.020363
2011-06-16 07:37:11 51°19.379 2°55.841 16.6157 4.252268 33.118037 -3.020363
2011-06-16 07:37:16 51°19.385 2°55.863 16.6198 4.251957 33.113992 -3.020363
2011-06-16 07:37:20 51°19.39 2°55.882 16.6191 4.254134 33.132939 -3.020363
2011-06-16 07:37:26 51°19.398 2°55.909 16.6199 4.255897 33.147609 -3.020363
2011-06-16 07:37:30 51°19.403 2°55.928 16.6241 4.255897 33.147609 -3.020363
2011-06-16 07:37:36 51°19.41 2°55.955 16.6266 4.256104 33.149414 -3.020363
2011-06-16 07:37:40 51°19.415 2°55.974 16.6237 4.255068 33.140391 -3.020363
2011-06-16 07:37:45 51°19.421 2°55.997 16.6221 4.252683 33.1183 -3.020363
2011-06-16 07:37:51 51°19.428 2°56.025 16.6186 4.25009 33.093741 -3.020363
2011-06-16 07:37:56 51°19.434 2°56.049 16.6146 4.247291 33.068052 -3.020363
2011-06-16 07:38:01 51°19.44 2°56.071 16.6182 4.247291 33.068052 -3.020363
2011-06-16 07:38:05 51°19.445 2°56.09 16.6196 4.246254 33.05703 -3.020363
2011-06-16 07:38:11 51°19.452 2°56.118 16.6243 4.24304 33.027742 -3.020363
2011-06-16 07:38:16 51°19.458 2°56.141 16.6313 4.242729 33.023703 -3.020363
2011-06-16 07:38:21 51°19.465 2°56.163 16.6378 4.244077 33.036091 -3.020363
2011-06-16 07:38:25 51°19.47 2°56.181 16.6422 4.245425 33.049148 -3.020363
2011-06-16 07:38:30 51°19.476 2°56.204 16.6443 4.245425 33.049148 -3.020363
2011-06-16 07:38:36 51°19.484 2°56.231 16.6476 4.244699 33.044171 -3.020363
2011-06-16 07:38:41 51°19.491 2°56.253 16.6521 4.245632 33.052287 -3.020363
2011-06-16 07:38:46 51°19.498 2°56.275 16.6567 4.243351 33.030447 -3.020363
2011-06-16 07:38:51 51°19.506 2°56.297 16.6632 4.24107 33.007944 -3.020363
2011-06-16 07:38:56 51°19.513 2°56.319 16.6698 4.239618 32.99066 -3.020363
2011-06-16 07:39:01 51°19.521 2°56.34 16.6787 4.239618 32.99066 -3.020363
2011-06-16 07:39:06 51°19.528 2°56.361 16.6852 4.237544 32.96864 -3.020363
2011-06-16 07:39:10 51°19.534 2°56.379 16.6903 4.234849 32.941887 -3.020363
2011-06-16 07:39:15 51°19.541 2°56.401 16.6961 4.232671 32.918982 -3.020363
2011-06-16 07:39:21 51°19.55 2°56.427 16.7016 4.22925 32.885941 -3.020363
2011-06-16 07:39:25 51°19.555 2°56.445 16.7065 4.224791 32.842583 -3.020363
2011-06-16 07:39:30 51°19.561 2°56.468 16.7091 4.224791 32.842583 -3.020363
2011-06-16 07:39:36 51°19.568 2°56.495 16.7097 4.220229 32.797022 -3.020363
2011-06-16 07:39:41 51°19.575 2°56.518 16.7079 4.21546 32.749026 -3.020363
2011-06-16 07:39:46 51°19.581 2°56.541 16.7068 4.211002 32.704415 -3.020363
2011-06-16 07:39:51 51°19.587 2°56.563 16.7076 4.208513 32.676906 -3.020363
2011-06-16 07:39:56 51°19.593 2°56.586 16.7093 4.20447 32.636589 -3.020363
2011-06-16 07:40:01 51°19.599 2°56.609 16.7118 4.20447 32.636589 -3.020363
2011-06-16 07:40:06 51°19.605 2°56.631 16.7169 4.20167 32.607727 -3.020363
2011-06-16 07:40:11 51°19.61 2°56.654 16.7224 4.200012 32.59007 -3.020363
2011-06-16 07:40:15 51°19.615 2°56.673 16.7284 4.198871 32.578877 -3.020363
2011-06-16 07:40:21 51°19.622 2°56.7 16.7328 4.200323 32.590795 -3.020363
2011-06-16 07:40:26 51°19.627 2°56.723 16.7401 4.200945 32.594871 -3.020363
2011-06-16 07:40:31 51°19.634 2°56.746 16.7426 4.200945 32.594871 -3.020363
2011-06-16 07:40:35 51°19.639 2°56.764 16.7458 4.200634 32.590863 -3.020363
2011-06-16 07:40:40 51°19.646 2°56.786 16.7477 4.197627 32.562196 -3.020363
2011-06-16 07:40:45 51°19.653 2°56.808 16.7502 4.194309 32.530843 -3.020363
2011-06-16 07:40:51 51°19.662 2°56.834 16.7546 4.190577 32.493946 -3.020363
2011-06-16 07:40:55 51°19.668 2°56.852 16.7606 4.186015 32.449887 -3.020363
2011-06-16 07:40:59 51°19.673 2°56.869 16.7653 4.186015 32.449887 -3.020363
2011-06-16 07:41:06 51°19.684 2°56.899 16.7686 4.181972 32.410985 -3.020363
2011-06-16 07:41:10 51°19.69 2°56.916 16.7706 4.179173 32.382859 -3.020363
2011-06-16 07:41:15 51°19.698 2°56.938 16.773 4.176996 32.360772 -3.020363
2011-06-16 07:41:21 51°19.707 2°56.964 16.7765 4.175026 32.340485 -3.020363
2011-06-16 07:41:26 51°19.713 2°56.986 16.7791 4.172123 32.312138 -3.020363
2011-06-16 07:41:31 51°19.72 2°57.008 16.7791 4.172123 32.312138 -3.020363
2011-06-16 07:41:36 51°19.727 2°57.03 16.7794 4.170153 32.291214 -3.020363
2011-06-16 07:41:40 51°19.732 2°57.049 16.7797 4.16694 32.258898 -3.020363
2011-06-16 07:41:46 51°19.739 2°57.076 16.7787 4.165073 32.239534 -3.020363
2011-06-16 07:41:51 51°19.745 2°57.099 16.7758 4.163726 32.2253 -3.020363
2011-06-16 07:41:56 51°19.752 2°57.121 16.7746 4.162378 32.210422 -3.020363
2011-06-16 07:42:00 51°19.757 2°57.139 16.7751 4.162378 32.210422 -3.020363
2011-06-16 07:42:06 51°19.764 2°57.167 16.7706 4.161549 32.20067 -3.020363
2011-06-16 07:42:11 51°19.771 2°57.189 16.7702 4.16103 32.1949 -3.020363
2011-06-16 07:42:16 51°19.777 2°57.212 16.7681 4.160823 32.191815 -3.020363
2011-06-16 07:42:20 51°19.783 2°57.23 16.766 4.162067 32.202557 -3.020363
2011-06-16 07:42:25 51°19.789 2°57.252 16.7646 4.16103 32.194253 -3.020363
2011-06-16 07:42:31 51°19.797 2°57.279 16.7624 4.16103 32.194253 -3.020363
2011-06-16 07:42:36 51°19.803 2°57.302 16.7586 4.162896 32.211013 -3.020363
2011-06-16 07:42:40 51°19.809 2°57.319 16.7571 4.162585 32.209622 -3.020363
2011-06-16 07:42:45 51°19.816 2°57.342 16.7541 4.16186 32.20465 -3.020363
2011-06-16 07:42:50 51°19.823 2°57.363 16.752 4.160408 32.193411 -3.020363
2011-06-16 07:42:56 51°19.832 2°57.389 16.7536 4.159164 32.18461 -3.020363
2011-06-16 07:43:00 51°19.838 2°57.407 16.7584 4.159164 32.18461 -3.020363
2011-06-16 07:43:05 51°19.845 2°57.428 16.7608 4.158957 32.18476 -3.020363
2011-06-16 07:43:10 51°19.853 2°57.45 16.7642 4.160719 32.201923 -3.020363
2011-06-16 07:43:16 51°19.862 2°57.476 16.7695 4.161652 32.211925 -3.020363
2011-06-16 07:43:20 51°19.868 2°57.493 16.7733 4.163208 32.227302 -3.020363
2011-06-16 07:43:26 51°19.877 2°57.519 16.7747 4.162689 32.224768 -3.020363
2011-06-16 07:43:31 51°19.885 2°57.54 16.7764 4.162689 32.224768 -3.020363
2011-06-16 07:43:36 51°19.892 2°57.562 16.7778 4.160927 32.209543 -3.020363
2011-06-16 07:43:40 51°19.899 2°57.579 16.7787 4.156884 32.173324 -3.020363
2011-06-16 07:43:45 51°19.906 2°57.601 16.7815 4.150975 32.120354 -3.020363
2011-06-16 07:43:51 51°19.915 2°57.627 16.7803 4.144755 32.06343 -3.020363
2011-06-16 07:43:56 51°19.922 2°57.649 16.7838 4.138535 32.007175 -3.020363
2011-06-16 07:44:00 51°19.928 2°57.666 16.7823 4.138535 32.007175 -3.020363
2011-06-16 07:44:05 51°19.935 2°57.689 16.7829 4.133145 31.958097 -3.020363
2011-06-16 07:44:11 51°19.943 2°57.715 16.7835 4.127858 31.910572 -3.020363
2011-06-16 07:44:16 51°19.95 2°57.737 16.7817 4.122571 31.863063 -3.020363
2011-06-16 07:44:20 51°19.956 2°57.754 16.7829 4.120187 31.841229 -3.020363
2011-06-16 07:44:26 51°19.964 2°57.781 16.7831 4.117181 31.814037 -3.020363
2011-06-16 07:44:30 51°19.97 2°57.798 16.7844 4.117181 31.814037 -3.020363
2011-06-16 07:44:36 51°19.978 2°57.824 16.7838 4.114071 31.786597 -3.020363
2011-06-16 07:44:40 51°19.984 2°57.842 16.7846 4.112102 31.768986 -3.020363
2011-06-16 07:44:45 51°19.991 2°57.864 16.7858 4.11376 31.783278 -3.020363
2011-06-16 07:44:50 51°19.998 2°57.886 16.787 4.111791 31.765668 -3.020363
2011-06-16 07:44:56 51°20.005 2°57.913 16.7851 4.110443 31.754057 -3.020363
2011-06-16 07:45:00 51°20.011 2°57.931 16.7867 4.110443 31.754057 -3.020363
2011-06-16 07:45:05 51°20.016 2°57.954 16.7859 4.109614 31.746274 -3.020363
2011-06-16 07:45:10 51°20.023 2°57.976 16.7892 4.108681 31.738237 -3.020363
2011-06-16 07:45:16 51°20.029 2°58.003 16.7877 4.106815 31.720888 -3.020363
2011-06-16 07:45:21 51°20.036 2°58.026 16.7877 4.104742 31.703029 -3.020363
2011-06-16 07:45:26 51°20.04 2°58.049 16.7859 4.103809 31.69372 -3.020363
2011-06-16 07:45:31 51°20.046 2°58.072 16.7875 4.103809 31.69372 -3.020363
2011-06-16 07:45:36 51°20.052 2°58.094 16.7895 4.101944 31.67765 -3.020363
2011-06-16 07:45:41 51°20.057 2°58.118 16.7899 4.101529 31.673443 -3.020363
2011-06-16 07:45:46 51°20.063 2°58.14 16.7897 4.102669 31.682627 -3.020363
2011-06-16 07:45:51 51°20.068 2°58.164 16.7924 4.102876 31.684412 -3.020363
2011-06-16 07:45:56 51°20.073 2°58.186 16.7933 4.102254 31.679056 -3.020363
2011-06-16 07:46:01 51°20.079 2°58.209 16.7928 4.102254 31.679056 -3.020363
2011-06-16 07:46:05 51°20.083 2°58.227 16.7945 4.101529 31.672807 -3.020363
2011-06-16 07:46:10 51°20.09 2°58.25 16.7928 4.104328 31.696274 -3.020363
2011-06-16 07:46:16 51°20.097 2°58.276 16.7939 4.103291 31.687347 -3.020363
2011-06-16 07:46:20 51°20.103 2°58.294 16.7946 4.101011 31.667071 -3.020363
2011-06-16 07:46:25 51°20.11 2°58.316 16.7936 4.099974 31.657509 -3.020363
2011-06-16 07:46:30 51°20.117 2°58.338 16.7949 4.099974 31.657509 -3.020363
2011-06-16 07:46:36 51°20.126 2°58.364 16.7964 4.098212 31.641701 -3.020363
2011-06-16 07:46:41 51°20.133 2°58.385 16.7959 4.096761 31.628571 -3.020363
2011-06-16 07:46:45 51°20.139 2°58.403 16.7966 4.096657 31.627678 -3.020363
2011-06-16 07:46:51 51°20.148 2°58.428 16.8011 4.096139 31.622581 -3.020363
2011-06-16 07:46:55 51°20.154 2°58.446 16.7985 4.094791 31.610346 -3.020363
2011-06-16 07:47:01 51°20.163 2°58.471 16.8015 4.094791 31.610346 -3.020363
2011-06-16 07:47:05 51°20.169 2°58.489 16.8014 4.094066 31.6041 -3.020363
2011-06-16 07:47:11 51°20.178 2°58.515 16.8022 4.093444 31.598112 -3.020363
2011-06-16 07:47:16 51°20.184 2°58.536 16.8043 4.092615 31.590339 -3.020363
2011-06-16 07:47:21 51°20.192 2°58.558 16.804 4.091993 31.584352 -3.020363
2011-06-16 07:47:26 51°20.199 2°58.58 16.8053 4.091889 31.582826 -3.020363
2011-06-16 07:47:30 51°20.204 2°58.598 16.8053 4.091889 31.582826 -3.020363
2011-06-16 07:47:36 51°20.211 2°58.625 16.8058 4.091682 31.579773 -3.020363
2011-06-16 07:47:41 51°20.216 2°58.648 16.801 4.092096 31.582073 -3.020363
2011-06-16 07:47:46 51°20.222 2°58.671 16.8055 4.092511 31.584373 -3.020363
2011-06-16 07:47:51 51°20.228 2°58.694 16.8054 4.093236 31.589983 -3.020363
2011-06-16 07:47:56 51°20.234 2°58.717 16.8091 4.09334 31.589607 -3.020363
2011-06-16 07:48:01 51°20.239 2°58.74 16.8052 4.09334 31.589607 -3.020363
2011-06-16 07:48:06 51°20.245 2°58.763 16.8047 4.09448 31.599419 -3.020363
2011-06-16 07:48:10 51°20.249 2°58.782 16.8079 4.09562 31.608598 -3.020363
2011-06-16 07:48:16 51°20.256 2°58.809 16.8078 4.096553 31.616627 -3.020363
2011-06-16 07:48:21 51°20.262 2°58.832 16.8095 4.096761 31.618411 -3.020363
2011-06-16 07:48:26 51°20.268 2°58.855 16.8115 4.098523 31.632307 -3.020363
2011-06-16 07:48:30 51°20.273 2°58.873 16.8125 4.098523 31.632307 -3.020363
2011-06-16 07:48:36 51°20.28 2°58.9 16.813 4.098937 31.635876 -3.020363
2011-06-16 07:48:41 51°20.287 2°58.922 16.8158 4.099974 31.645433 -3.020363
2011-06-16 07:48:46 51°20.295 2°58.944 16.8177 4.100596 31.650151 -3.020363
2011-06-16 07:48:51 51°20.302 2°58.966 16.8165 4.099974 31.644163 -3.020363
2011-06-16 07:48:56 51°20.308 2°58.988 16.8193 4.100907 31.651557 -3.020363
2011-06-16 07:49:00 51°20.313 2°59.006 16.8222 4.100907 31.651557 -3.020363
2011-06-16 07:49:05 51°20.319 2°59.029 16.8222 4.101321 31.654491 -3.020363
2011-06-16 07:49:11 51°20.327 2°59.056 16.8196 4.100803 31.648759 -3.020363
2011-06-16 07:49:15 51°20.332 2°59.074 16.8222 4.100181 31.642136 -3.020363
2011-06-16 07:49:21 51°20.34 2°59.101 16.8215 4.099455 31.634621 -3.020363
2011-06-16 07:49:26 51°20.346 2°59.124 16.8211 4.098626 31.62685 -3.020363
2011-06-16 07:49:31 51°20.352 2°59.147 16.8214 4.098626 31.62685 -3.020363
2011-06-16 07:49:36 51°20.358 2°59.169 16.8205 4.097486 31.61577 -3.020363
2011-06-16 07:49:40 51°20.364 2°59.187 16.8209 4.096657 31.606732 -3.020363
2011-06-16 07:49:46 51°20.372 2°59.214 16.8231 4.09562 31.597814 -3.020363
2011-06-16 07:49:51 51°20.379 2°59.235 16.824 4.095517 31.596288 -3.020363
2011-06-16 07:49:56 51°20.387 2°59.258 16.8274 4.095102 31.592087 -3.020363
2011-06-16 07:50:00 51°20.393 2°59.275 16.8263 4.095102 31.592087 -3.020363
2011-06-16 07:50:05 51°20.4 2°59.297 16.8278 4.094376 31.585845 -3.020363
2011-06-16 07:50:10 51°20.407 2°59.32 16.8263 4.094169 31.584062 -3.020363
2011-06-16 07:50:16 51°20.415 2°59.347 16.8301 4.093547 31.578712 -3.020363
2011-06-16 07:50:20 51°20.42 2°59.365 16.8296 4.092925 31.572728 -3.020363
2011-06-16 07:50:25 51°20.426 2°59.388 16.8305 4.091992 31.564071 -3.020363
2011-06-16 07:50:30 51°20.432 2°59.411 16.83 4.091992 31.564071 -3.020363
2011-06-16 07:50:36 51°20.44 2°59.438 16.8325 4.091163 31.555039 -3.020363
2011-06-16 07:50:41 51°20.445 2°59.462 16.8339 4.088986 31.535686 -3.020363
2011-06-16 07:50:46 51°20.451 2°59.485 16.8324 4.088572 31.531488 -3.020363
2011-06-16 07:50:51 51°20.456 2°59.509 16.8299 4.088054 31.525766 -3.020363
2011-06-16 07:50:56 51°20.461 2°59.533 16.83 4.087846 31.523351 -3.020363
2011-06-16 07:51:01 51°20.466 2°59.557 16.8358 4.087846 31.523351 -3.020363
2011-06-16 07:51:05 51°20.469 2°59.577 16.8311 4.087224 31.517371 -3.020363
2011-06-16 07:51:11 51°20.475 2°59.605 16.8328 4.087121 31.515215 -3.020363
2011-06-16 07:51:16 51°20.478 2°59.63 16.8354 4.08681 31.51191 -3.020363
2011-06-16 07:51:21 51°20.483 2°59.654 16.8354 4.086706 31.511019 -3.020363
2011-06-16 07:51:25 51°20.486 2°59.673 16.8338 4.086084 31.505672 -3.020363
2011-06-16 07:51:31 51°20.491 2°59.703 16.8357 4.086084 31.505672 -3.020363
2011-06-16 07:51:36 51°20.495 2°59.727 16.8362 4.085773 31.502998 -3.020363
2011-06-16 07:51:41 51°20.5 2°59.751 16.84 4.08598 31.504781 -3.020363
2011-06-16 07:51:45 51°20.503 2°59.771 16.8356 4.085669 31.501475 -3.020363
2011-06-16 07:51:50 51°20.508 2°59.795 16.8374 4.085566 31.499952 -3.020363
2011-06-16 07:51:56 51°20.514 2°59.824 16.8356 4.085151 31.495756 -3.020363
2011-06-16 07:52:01 51°20.519 2°59.848 16.8398 4.085151 31.495756 -3.020363
2011-06-16 07:52:05 51°20.524 2°59.867 16.8408 4.083596 31.482391 -3.020363
2011-06-16 07:52:10 51°20.53 2°59.89 16.8393 4.083907 31.484433 -3.020363
2011-06-16 07:52:16 51°20.537 2°59.918 16.8391 4.083182 31.477565 -3.020363
2011-06-16 07:52:21 51°20.543 2°59.941 16.8432 4.082353 31.470437 -3.020363
2011-06-16 07:52:25 51°20.547 2°59.96 16.8431 4.078829 31.440149 -3.020363
2011-06-16 07:52:30 51°20.554 2°59.983 16.8424 4.078829 31.440149 -3.020363
2011-06-16 07:52:35 51°20.559 3°0.006 16.8406 4.077688 31.42972 -3.020363
2011-06-16 07:52:41 51°20.566 3°0.035 16.8469 4.076859 31.421965 -3.020363
2011-06-16 07:52:46 51°20.571 3°0.059 16.851 4.076652 31.419553 -3.020363
2011-06-16 07:52:51 51°20.575 3°0.083 16.8463 4.075408 31.408866 -3.020363
2011-06-16 07:52:56 51°20.58 3°0.107 16.847 4.074786 31.402263 -3.020363
2011-06-16 07:53:01 51°20.584 3°0.132 16.8461 4.074786 31.402263 -3.020363
2011-06-16 07:53:06 51°20.589 3°0.156 16.8423 4.074268 31.397181 -3.020363
2011-06-16 07:53:11 51°20.592 3°0.18 16.844 4.073128 31.386756 -3.020363
2011-06-16 07:53:16 51°20.597 3°0.204 16.8421 4.073128 31.385498 -3.020363
2011-06-16 07:53:21 51°20.602 3°0.229 16.8419 4.072402 31.378007 -3.020363
2011-06-16 07:53:26 51°20.607 3°0.253 16.8455 4.072299 31.376487 -3.020363
2011-06-16 07:53:31 51°20.613 3°0.276 16.8432 4.072299 31.376487 -3.020363
2011-06-16 07:53:36 51°20.618 3°0.3 16.8448 4.07178 31.372036 -3.020363
2011-06-16 07:53:41 51°20.624 3°0.323 16.8443 4.070847 31.364652 -3.020363
2011-06-16 07:53:46 51°20.63 3°0.346 16.8443 4.070433 31.36172 -3.020363
2011-06-16 07:53:51 51°20.636 3°0.37 16.8446 4.070018 31.359416 -3.020363
2011-06-16 07:53:56 51°20.643 3°0.393 16.8471 4.069707 31.356745 -3.020363
2011-06-16 07:54:01 51°20.649 3°0.416 16.8502 4.069707 31.356745 -3.020363
2011-06-16 07:54:06 51°20.655 3°0.439 16.8451 4.069085 31.351404 -3.020363
2011-06-16 07:54:10 51°20.66 3°0.458 16.8499 4.068878 31.348995 -3.020363
2011-06-16 07:54:16 51°20.667 3°0.486 16.8499 4.067842 31.340092 -3.020363
2011-06-16 07:54:21 51°20.672 3°0.509 16.8535 4.069085 31.350775 -3.020363
2011-06-16 07:54:26 51°20.678 3°0.533 16.8511 4.070537 31.36261 -3.020363
2011-06-16 07:54:30 51°20.681 3°0.552 16.8496 4.070537 31.36261 -3.020363
2011-06-16 07:54:36 51°20.686 3°0.581 16.8469 4.070433 31.360462 -3.020363
2011-06-16 07:54:41 51°20.691 3°0.605 16.8592 4.070018 31.356273 -3.020363
2011-06-16 07:54:46 51°20.695 3°0.63 16.8543 4.069811 31.353864 -3.020363
2011-06-16 07:54:50 51°20.698 3°0.649 16.8518 4.069707 31.351088 -3.020363
2011-06-16 07:54:55 51°20.702 3°0.674 16.8578 4.069604 31.348941 -3.020363
2011-06-16 07:55:00 51°20.706 3°0.698 16.8482 4.069604 31.348941 -3.020363
2011-06-16 07:55:07 51°20.712 3°0.732 16.8516 4.068982 31.3436 -3.020363
2011-06-16 07:55:11 51°20.715 3°0.752 16.8482 4.068256 31.337998 -3.020363
2011-06-16 07:55:16 51°20.72 3°0.776 16.8477 4.068153 31.335852 -3.020363
2011-06-16 07:55:21 51°20.725 3°0.8 16.847 4.068049 31.334334 -3.020363
2011-06-16 07:55:26 51°20.73 3°0.824 16.8468 4.067945 31.333444 -3.020363
2011-06-16 07:55:31 51°20.736 3°0.847 16.8512 4.067945 31.333444 -3.020363
2011-06-16 07:55:35 51°20.741 3°0.866 16.8487 4.067738 31.332292 -3.020363
2011-06-16 07:55:40 51°20.747 3°0.89 16.8477 4.067427 31.33025 -3.020363
2011-06-16 07:55:46 51°20.754 3°0.918 16.8467 4.067012 31.327946 -3.020363
2011-06-16 07:55:51 51°20.76 3°0.941 16.8489 4.066805 31.327422 -3.020363
2011-06-16 07:55:55 51°20.765 3°0.96 16.8496 4.066494 31.324752 -3.020363
2011-06-16 07:56:00 51°20.771 3°0.984 16.8469 4.066494 31.324752 -3.020363
2011-06-16 07:56:06 51°20.778 3°1.011 16.8475 4.066391 31.32449 -3.020363
2011-06-16 07:56:11 51°20.784 3°1.035 16.8514 4.066287 31.3236 -3.020363
2011-06-16 07:56:15 51°20.789 3°1.054 16.8522 4.065976 31.32093 -3.020363
2011-06-16 07:56:19 51°20.793 3°1.073 16.8516 4.065769 31.31915 -3.020363
2011-06-16 07:56:26 51°20.8 3°1.107 16.8488 4.065769 31.31915 -3.020363
2011-06-16 07:56:30 51°20.804 3°1.126 16.8552 4.065769 31.31915 -3.020363
2011-06-16 07:56:35 51°20.808 3°1.151 16.8527 4.064525 31.307842 -3.020363
2011-06-16 07:56:40 51°20.812 3°1.175 16.8511 4.065561 31.316742 -3.020363
2011-06-16 07:56:45 51°20.817 3°1.2 16.8488 4.065769 31.317266 -3.020363
2011-06-16 07:56:51 51°20.822 3°1.229 16.8546 4.065872 31.3169 -3.020363
2011-06-16 07:56:56 51°20.826 3°1.254 16.8506 4.065769 31.316638 -3.020363
2011-06-16 07:57:01 51°20.831 3°1.278 16.8501 4.065769 31.316638 -3.020363
2011-06-16 07:57:06 51°20.836 3°1.301 16.852 4.065769 31.31601 -3.020363
2011-06-16 07:57:11 51°20.842 3°1.325 16.849 4.065872 31.316273 -3.020363
2011-06-16 07:57:16 51°20.848 3°1.349 16.847 4.065769 31.31601 -3.020363
2011-06-16 07:57:20 51°20.853 3°1.367 16.852 4.065665 31.315121 -3.020363
2011-06-16 07:57:26 51°20.86 3°1.395 16.8516 4.065458 31.313341 -3.020363
2011-06-16 07:57:31 51°20.867 3°1.417 16.8499 4.065458 31.313341 -3.020363
2011-06-16 07:57:36 51°20.873 3°1.44 16.849 4.06525 31.312188 -3.020363
2011-06-16 07:57:40 51°20.878 3°1.458 16.8482 4.065147 31.311299 -3.020363
2011-06-16 07:57:46 51°20.886 3°1.486 16.8558 4.064525 31.305959 -3.020363
2011-06-16 07:57:51 51°20.892 3°1.508 16.8528 4.06411 31.303654 -3.020363
2011-06-16 07:57:56 51°20.899 3°1.531 16.8501 4.064007 31.302137 -3.020363
2011-06-16 07:58:00 51°20.905 3°1.549 16.8511 4.064007 31.302137 -3.020363
2011-06-16 07:58:05 51°20.911 3°1.572 16.852 4.063799 31.299102 -3.020363
2011-06-16 07:58:11 51°20.919 3°1.6 16.8501 4.063385 31.29617 -3.020363
2011-06-16 07:58:16 51°20.925 3°1.623 16.8508 4.062763 31.292086 -3.020363
2011-06-16 07:58:21 51°20.931 3°1.646 16.8475 4.062659 31.289941 -3.020363
2011-06-16 07:58:25 51°20.935 3°1.665 16.8458 4.062348 31.287272 -3.020363
2011-06-16 07:58:31 51°20.941 3°1.694 16.8484 4.062348 31.287272 -3.020363
2011-06-16 07:58:36 51°20.946 3°1.717 16.8472 4.062037 31.284602 -3.020363
2011-06-16 07:58:41 51°20.951 3°1.742 16.8504 4.061726 31.281306 -3.020363
2011-06-16 07:58:45 51°20.955 3°1.761 16.8471 4.061415 31.278636 -3.020363
2011-06-16 07:58:51 51°20.96 3°1.79 16.8429 4.061105 31.275967 -3.020363
2011-06-16 07:58:56 51°20.964 3°1.814 16.8444 4.06069 31.273662 -3.020363
2011-06-16 07:59:01 51°20.969 3°1.838 16.8417 4.06069 31.273662 -3.020363
2011-06-16 07:59:05 51°20.973 3°1.857 16.842 4.060379 31.271619 -3.020363
2011-06-16 07:59:09 51°20.977 3°1.877 16.8405 4.060068 31.26895 -3.020363
2011-06-16 07:59:15 51°20.984 3°1.905 16.8449 4.059757 31.265654 -3.020363
2011-06-16 07:59:21 51°20.991 3°1.933 16.8457 4.059446 31.263611 -3.020363
2011-06-16 07:59:25 51°20.996 3°1.951 16.8447 4.059032 31.261932 -3.020363
2011-06-16 07:59:30 51°21.002 3°1.974 16.8452 4.059032 31.261932 -3.020363
2011-06-16 07:59:36 51°21.009 3°2.002 16.852 4.05841 31.25722 -3.020363
2011-06-16 07:59:41 51°21.016 3°2.025 16.8495 4.057892 31.254651 -3.020363
2011-06-16 07:59:46 51°21.022 3°2.048 16.8459 4.057373 31.250829 -3.020363
2011-06-16 07:59:51 51°21.029 3°2.071 16.8444 4.05727 31.249312 -3.020363
2011-06-16 07:59:56 51°21.035 3°2.094 16.8453 4.057166 31.248423 -3.020363
2011-06-16 08:00:01 51°21.04 3°2.118 16.846 4.057166 31.248423 -3.020363
2011-06-16 08:00:06 51°21.046 3°2.142 16.8436 4.057062 31.24628 -3.020363
2011-06-16 08:00:10 51°21.05 3°2.161 16.846 4.057166 31.246543 -3.020363
2011-06-16 08:00:16 51°21.056 3°2.19 16.8499 4.057166 31.24529 -3.020363
2011-06-16 08:00:21 51°21.061 3°2.214 16.8427 4.056959 31.243511 -3.020363
2011-06-16 08:00:26 51°21.066 3°2.238 16.8439 4.056752 31.242358 -3.020363
2011-06-16 08:00:31 51°21.07 3°2.263 16.8438 4.056752 31.242358 -3.020363
2011-06-16 08:00:36 51°21.075 3°2.287 16.8434 4.056544 31.241205 -3.020363
2011-06-16 08:00:41 51°21.08 3°2.311 16.8492 4.056441 31.240315 -3.020363
2011-06-16 08:00:46 51°21.085 3°2.335 16.8418 4.056441 31.240315 -3.020363
2011-06-16 08:00:51 51°21.089 3°2.359 16.8428 4.056648 31.242094 -3.020363
2011-06-16 08:00:56 51°21.094 3°2.383 16.8447 4.056648 31.242094 -3.020363
2011-06-16 08:01:01 51°21.1 3°2.407 16.8423 4.056648 31.242094 -3.020363
2011-06-16 08:01:06 51°21.105 3°2.431 16.8419 4.056648 31.243347 -3.020363
2011-06-16 08:01:11 51°21.11 3°2.455 16.839 4.056752 31.244237 -3.020363
2011-06-16 08:01:16 51°21.116 3°2.479 16.8386 4.056959 31.24539 -3.020363
2011-06-16 08:01:21 51°21.121 3°2.502 16.843 4.057166 31.247796 -3.020363
2011-06-16 08:01:26 51°21.126 3°2.526 16.8418 4.057373 31.250202 -3.020363
2011-06-16 08:01:30 51°21.131 3°2.545 16.8458 4.057373 31.250202 -3.020363
2011-06-16 08:01:36 51°21.136 3°2.575 16.8441 4.057684 31.253498 -3.020363
2011-06-16 08:01:41 51°21.14 3°2.599 16.8404 4.057995 31.256794 -3.020363
2011-06-16 08:01:46 51°21.144 3°2.624 16.8353 4.058306 31.259464 -3.020363
2011-06-16 08:01:51 51°21.148 3°2.649 16.8434 4.058514 31.261871 -3.020363
2011-06-16 08:01:56 51°21.152 3°2.673 16.8359 4.058928 31.264803 -3.020363
2011-06-16 08:02:01 51°21.156 3°2.698 16.8338 4.058928 31.264803 -3.020363
2011-06-16 08:02:06 51°21.16 3°2.722 16.8344 4.059343 31.268363 -3.020363
2011-06-16 08:02:11 51°21.164 3°2.747 16.8332 4.059757 31.271296 -3.020363
2011-06-16 08:02:16 51°21.168 3°2.771 16.835 4.060172 31.275483 -3.020363
2011-06-16 08:02:21 51°21.171 3°2.796 16.8296 4.060276 31.277627 -3.020363
2011-06-16 08:02:26 51°21.174 3°2.82 16.8274 4.060586 31.280297 -3.020363
2011-06-16 08:02:31 51°21.178 3°2.845 16.8282 4.060586 31.280297 -3.020363
2011-06-16 08:02:36 51°21.182 3°2.87 16.8322 4.060794 31.283331 -3.020363
2011-06-16 08:02:41 51°21.185 3°2.894 16.828 4.060897 31.284849 -3.020363
2011-06-16 08:02:46 51°21.189 3°2.919 16.8285 4.061312 31.289664 -3.020363
2011-06-16 08:02:51 51°21.193 3°2.943 16.8255 4.061519 31.291444 -3.020363
2011-06-16 08:02:56 51°21.197 3°2.968 16.8307 4.061312 31.291547 -3.020363
2011-06-16 08:03:01 51°21.201 3°2.992 16.8249 4.061312 31.291547 -3.020363
2011-06-16 08:03:06 51°21.206 3°3.016 16.8246 4.061001 31.290131 -3.020363
2011-06-16 08:03:11 51°21.211 3°3.041 16.827 4.061416 31.29432 -3.020363
2011-06-16 08:03:16 51°21.216 3°3.065 16.8249 4.061519 31.295838 -3.020363
2011-06-16 08:03:21 51°21.221 3°3.089 16.8249 4.061623 31.297356 -3.020363
2011-06-16 08:03:26 51°21.227 3°3.113 16.8235 4.062141 31.302435 -3.020363
2011-06-16 08:03:30 51°21.231 3°3.132 16.826 4.062141 31.302435 -3.020363
2011-06-16 08:03:36 51°21.238 3°3.161 16.8266 4.062038 31.301545 -3.020363
2011-06-16 08:03:41 51°21.243 3°3.185 16.8295 4.062141 31.303691 -3.020363
2011-06-16 08:03:46 51°21.248 3°3.21 16.8255 4.062245 31.304581 -3.020363
2011-06-16 08:03:51 51°21.252 3°3.234 16.8241 4.062038 31.303428 -3.020363
2011-06-16 08:03:56 51°21.256 3°3.259 16.8236 4.062141 31.304947 -3.020363
2011-06-16 08:04:01 51°21.26 3°3.284 16.8238 4.062141 31.304947 -3.020363
2011-06-16 08:04:06 51°21.264 3°3.309 16.8261 4.062245 31.305837 -3.020363
2011-06-16 08:04:10 51°21.268 3°3.329 16.8206 4.062349 31.305471 -3.020363
2011-06-16 08:04:16 51°21.273 3°3.359 16.8187 4.062556 31.306624 -3.020363
2011-06-16 08:04:21 51°21.278 3°3.384 16.8169 4.062556 31.306624 -3.020363
2011-06-16 08:04:26 51°21.283 3°3.409 16.8216 4.062141 31.304319 -3.020363
2011-06-16 08:04:30 51°21.287 3°3.428 16.8156 4.062141 31.304319 -3.020363
2011-06-16 08:04:36 51°21.294 3°3.457 16.8145 4.062349 31.306727 -3.020363
2011-06-16 08:04:41 51°21.299 3°3.482 16.8149 4.062556 31.30788 -3.020363
2011-06-16 08:04:46 51°21.305 3°3.506 16.8147 4.062763 31.310917 -3.020363
2011-06-16 08:04:51 51°21.31 3°3.53 16.8212 4.062349 31.30924 -3.020363
2011-06-16 08:04:56 51°21.316 3°3.553 16.8152 4.06266 31.313168 -3.020363
2011-06-16 08:05:01 51°21.322 3°3.577 16.8112 4.06266 31.313168 -3.020363
2011-06-16 08:05:06 51°21.328 3°3.601 16.807 4.062763 31.314686 -3.020363
2011-06-16 08:05:11 51°21.333 3°3.626 16.8144 4.062452 31.313271 -3.020363
2011-06-16 08:05:16 51°21.338 3°3.651 16.8058 4.062349 31.313637 -3.020363
2011-06-16 08:05:21 51°21.342 3°3.675 16.7998 4.062452 31.315156 -3.020363
2011-06-16 08:05:26 51°21.347 3°3.7 16.8031 4.062763 31.3172 -3.020363
2011-06-16 08:05:31 51°21.351 3°3.725 16.8007 4.062763 31.3172 -3.020363
2011-06-16 08:05:36 51°21.356 3°3.75 16.7952 4.062556 31.316675 -3.020363
2011-06-16 08:05:41 51°21.36 3°3.775 16.7895 4.061727 31.310807 -3.020363
2011-06-16 08:05:46 51°21.365 3°3.8 16.7862 4.062971 31.321495 -3.020363
2011-06-16 08:05:51 51°21.369 3°3.825 16.7855 4.062971 31.32401 -3.020363
2011-06-16 08:05:56 51°21.374 3°3.849 16.7818 4.063282 31.328568 -3.020363
2011-06-16 08:06:01 51°21.379 3°3.874 16.7788 4.063282 31.328568 -3.020363
2011-06-16 08:06:06 51°21.385 3°3.898 16.7755 4.063385 31.331974 -3.020363
2011-06-16 08:06:11 51°21.39 3°3.922 16.7776 4.0638 31.336167 -3.020363
2011-06-16 08:06:16 51°21.395 3°3.946 16.7762 4.064318 31.345026 -3.020363
2011-06-16 08:06:21 51°21.399 3°3.971 16.7696 4.064215 31.347282 -3.020363
2011-06-16 08:06:26 51°21.403 3°3.996 16.7691 4.064629 31.353365 -3.020363
2011-06-16 08:06:31 51°21.408 3°4.02 16.7687 4.064629 31.353365 -3.020363
2011-06-16 08:06:36 51°21.411 3°4.045 16.7634 4.064629 31.355884 -3.020363
2011-06-16 08:06:41 51°21.415 3°4.07 16.7622 4.064837 31.360186 -3.020363
2011-06-16 08:06:46 51°21.418 3°4.096 16.7682 4.065044 31.363229 -3.020363
2011-06-16 08:06:51 51°21.421 3°4.121 16.7584 4.065562 31.368946 -3.020363
2011-06-16 08:06:56 51°21.425 3°4.146 16.7603 4.065355 31.369054 -3.020363
2011-06-16 08:07:01 51°21.428 3°4.171 16.7541 4.065355 31.369054 -3.020363
2011-06-16 08:07:06 51°21.431 3°4.196 16.7546 4.06577 31.374511 -3.020363
2011-06-16 08:07:11 51°21.434 3°4.221 16.7533 4.065977 31.378185 -3.020363
2011-06-16 08:07:16 51°21.438 3°4.246 16.7524 4.066184 31.383121 -3.020363
2011-06-16 08:07:21 51°21.442 3°4.27 16.7472 4.066392 31.385536 -3.020363
2011-06-16 08:07:26 51°21.446 3°4.295 16.748 4.066703 31.390103 -3.020363
2011-06-16 08:07:31 51°21.45 3°4.319 16.7487 4.066703 31.390103 -3.020363
2011-06-16 08:07:36 51°21.455 3°4.343 16.7463 4.06691 31.394411 -3.020363
2011-06-16 08:07:41 51°21.46 3°4.367 16.7453 4.067221 31.39898 -3.020363
2011-06-16 08:07:46 51°21.464 3°4.391 16.7477 4.067532 31.402287 -3.020363
2011-06-16 08:07:50 51°21.468 3°4.41 16.7453 4.067532 31.404812 -3.020363
2011-06-16 08:07:56 51°21.474 3°4.439 16.7467 4.068154 31.412691 -3.020363
2011-06-16 08:08:01 51°21.478 3°4.463 16.7456 4.068154 31.412691 -3.020363
2011-06-16 08:08:06 51°21.483 3°4.487 16.7457 4.06805 31.41243 -3.020363
2011-06-16 08:08:11 51°21.488 3°4.51 16.7445 4.068154 31.414586 -3.020363
2011-06-16 08:08:16 51°21.493 3°4.534 16.7481 4.068568 31.418787 -3.020363
2011-06-16 08:08:21 51°21.497 3°4.558 16.7409 4.068154 31.415849 -3.020363
2011-06-16 08:08:26 51°21.501 3°4.583 16.7408 4.068361 31.417634 -3.020363
2011-06-16 08:08:31 51°21.505 3°4.607 16.7453 4.068361 31.417634 -3.020363
2011-06-16 08:08:36 51°21.508 3°4.631 16.7424 4.068154 31.416481 -3.020363
2011-06-16 08:08:41 51°21.512 3°4.656 16.739 4.068672 31.420942 -3.020363
2011-06-16 08:08:46 51°21.515 3°4.681 16.7429 4.069087 31.424512 -3.020363
2011-06-16 08:08:51 51°21.518 3°4.706 16.7423 4.068776 31.421835 -3.020363
2011-06-16 08:08:56 51°21.52 3°4.731 16.7423 4.069294 31.427561 -3.020363
2011-06-16 08:09:01 51°21.523 3°4.755 16.7455 4.069294 31.427561 -3.020363
2011-06-16 08:09:06 51°21.526 3°4.78 16.7379 4.069398 31.429085 -3.020363
2011-06-16 08:09:11 51°21.529 3°4.805 16.7356 4.069605 31.431502 -3.020363
2011-06-16 08:09:16 51°21.532 3°4.83 16.7369 4.069501 31.431874 -3.020363
2011-06-16 08:09:21 51°21.535 3°4.855 16.7369 4.069916 31.434811 -3.020363
2011-06-16 08:09:26 51°21.538 3°4.879 16.74 4.070331 31.438381 -3.020363
2011-06-16 08:09:30 51°21.541 3°4.898 16.7382 4.070331 31.438381 -3.020363
2011-06-16 08:09:36 51°21.545 3°4.928 16.7335 4.070745 31.441952 -3.020363
2011-06-16 08:09:41 51°21.549 3°4.952 16.7332 4.071056 31.445262 -3.020363
2011-06-16 08:09:46 51°21.552 3°4.977 16.7335 4.07116 31.448051 -3.020363
2011-06-16 08:09:51 51°21.555 3°5.001 16.7335 4.071367 31.450469 -3.020363
2011-06-16 08:09:56 51°21.558 3°5.026 16.7314 4.071263 31.449577 -3.020363
2011-06-16 08:10:01 51°21.562 3°5.05 16.7337 4.071263 31.449577 -3.020363
2011-06-16 08:10:06 51°21.566 3°5.075 16.7303 4.071782 31.454672 -3.020363
2011-06-16 08:10:10 51°21.569 3°5.094 16.7317 4.071574 31.45352 -3.020363
2011-06-16 08:10:16 51°21.573 3°5.123 16.7325 4.071574 31.454785 -3.020363
2011-06-16 08:10:21 51°21.578 3°5.147 16.7292 4.071574 31.455418 -3.020363
2011-06-16 08:10:26 51°21.583 3°5.17 16.7325 4.071263 31.452739 -3.020363
2011-06-16 08:10:30 51°21.587 3°5.19 16.7323 4.071263 31.452739 -3.020363
2011-06-16 08:10:36 51°21.592 3°5.218 16.7305 4.071574 31.45605 -3.020363
2011-06-16 08:10:41 51°21.597 3°5.242 16.7324 4.071678 31.458209 -3.020363
2011-06-16 08:10:46 51°21.602 3°5.265 16.7316 4.071885 31.459994 -3.020363
2011-06-16 08:10:51 51°21.607 3°5.289 16.729 4.071782 31.459102 -3.020363
2011-06-16 08:10:56 51°21.612 3°5.313 16.7312 4.071367 31.456163 -3.020363
2011-06-16 08:11:01 51°21.617 3°5.337 16.7289 4.071367 31.456163 -3.020363
2011-06-16 08:11:06 51°21.621 3°5.361 16.734 4.071885 31.459994 -3.020363
2011-06-16 08:11:11 51°21.625 3°5.385 16.7313 4.071678 31.458209 -3.020363
2011-06-16 08:11:16 51°21.63 3°5.408 16.7285 4.072196 31.462673 -3.020363
2011-06-16 08:11:21 51°21.634 3°5.432 16.7313 4.072196 31.463306 -3.020363
2011-06-16 08:11:26 51°21.638 3°5.457 16.7319 4.072093 31.463046 -3.020363
2011-06-16 08:11:31 51°21.641 3°5.481 16.7301 4.072093 31.463046 -3.020363
2011-06-16 08:11:36 51°21.644 3°5.506 16.731 4.071678 31.459474 -3.020363
2011-06-16 08:11:41 51°21.647 3°5.531 16.7298 4.072093 31.462413 -3.020363
2011-06-16 08:11:46 51°21.649 3°5.556 16.7274 4.0723 31.463566 -3.020363
2011-06-16 08:11:50 51°21.651 3°5.576 16.727 4.071885 31.460627 -3.020363
2011-06-16 08:11:56 51°21.654 3°5.606 16.7292 4.0723 31.464199 -3.020363
2011-06-16 08:12:01 51°21.657 3°5.631 16.7298 4.0723 31.464199 -3.020363
2011-06-16 08:12:06 51°21.659 3°5.656 16.7271 4.072093 31.462413 -3.020363
2011-06-16 08:12:10 51°21.661 3°5.676 16.7271 4.071782 31.459734 -3.020363
2011-06-16 08:12:16 51°21.665 3°5.706 16.7289 4.072093 31.463046 -3.020363
2011-06-16 08:12:21 51°21.668 3°5.73 16.7284 4.071782 31.461 -3.020363
2011-06-16 08:12:26 51°21.672 3°5.754 16.7299 4.072196 31.464572 -3.020363
2011-06-16 08:12:31 51°21.676 3°5.779 16.7275 4.072196 31.464572 -3.020363
2011-06-16 08:12:36 51°21.68 3°5.803 16.726 4.071574 31.459214 -3.020363
2011-06-16 08:12:41 51°21.685 3°5.827 16.7274 4.072196 31.465205 -3.020363
2011-06-16 08:12:46 51°21.689 3°5.851 16.7275 4.071471 31.459587 -3.020363
2011-06-16 08:12:50 51°21.692 3°5.871 16.7289 4.071989 31.464052 -3.020363
2011-06-16 08:12:56 51°21.698 3°5.9 16.7296 4.072093 31.464945 -3.020363
2011-06-16 08:13:01 51°21.701 3°5.925 16.7302 4.072093 31.464945 -3.020363
2011-06-16 08:13:06 51°21.705 3°5.949 16.73 4.071885 31.463159 -3.020363
2011-06-16 08:13:11 51°21.707 3°5.975 16.7299 4.071989 31.464685 -3.020363
2011-06-16 08:13:16 51°21.71 3°6 16.729 4.071575 31.461113 -3.020363
2011-06-16 08:13:21 51°21.713 3°6.025 16.7312 4.071885 31.463159 -3.020363
2011-06-16 08:13:26 51°21.716 3°6.05 16.7312 4.071885 31.462526 -3.020363
2011-06-16 08:13:31 51°21.718 3°6.076 16.7322 4.071885 31.462526 -3.020363
2011-06-16 08:13:36 51°21.721 3°6.101 16.7305 4.071574 31.459214 -3.020363
2011-06-16 08:13:41 51°21.724 3°6.126 16.7322 4.070538 31.449653 -3.020363
2011-06-16 08:13:46 51°21.728 3°6.15 16.7315 4.070123 31.446082 -3.020363
2011-06-16 08:13:50 51°21.731 3°6.17 16.7297 4.070538 31.449653 -3.020363
2011-06-16 08:13:56 51°21.736 3°6.199 16.7275 4.070538 31.449653 -3.020363
2011-06-16 08:14:01 51°21.74 3°6.224 16.7287 4.070538 31.449653 -3.020363
2011-06-16 08:14:06 51°21.744 3°6.249 16.7268 4.07002 31.44519 -3.020363
2011-06-16 08:14:11 51°21.748 3°6.273 16.7289 4.070331 31.447868 -3.020363
2011-06-16 08:14:16 51°21.752 3°6.298 16.729 4.070123 31.446082 -3.020363
2011-06-16 08:14:21 51°21.755 3°6.323 16.7289 4.070642 31.450546 -3.020363
2011-06-16 08:14:26 51°21.758 3°6.348 16.7276 4.070538 31.450286 -3.020363
2011-06-16 08:14:31 51°21.761 3°6.373 16.7296 4.070538 31.450286 -3.020363
2011-06-16 08:14:36 51°21.764 3°6.398 16.7301 4.070123 31.447348 -3.020363
2011-06-16 08:14:41 51°21.767 3°6.423 16.7299 4.069087 31.43842 -3.020363
2011-06-16 08:14:46 51°21.77 3°6.449 16.7271 4.070538 31.450919 -3.020363
2011-06-16 08:14:50 51°21.772 3°6.469 16.7285 4.07116 31.455643 -3.020363
2011-06-16 08:14:56 51°21.776 3°6.499 16.7312 4.070434 31.450026 -3.020363
2011-06-16 08:15:01 51°21.779 3°6.524 16.7274 4.070434 31.450026 -3.020363
2011-06-16 08:15:06 51°21.782 3°6.549 16.7287 4.070953 31.453857 -3.020363
2011-06-16 08:15:11 51°21.785 3°6.574 16.7312 4.070849 31.452965 -3.020363
2011-06-16 08:15:16 51°21.789 3°6.599 16.7278 4.070745 31.452072 -3.020363
2011-06-16 08:15:21 51°21.792 3°6.624 16.7263 4.069916 31.445562 -3.020363
2011-06-16 08:15:26 51°21.795 3°6.649 16.7271 4.070642 31.451812 -3.020363
2011-06-16 08:15:30 51°21.798 3°6.669 16.7278 4.070642 31.451812 -3.020363
2011-06-16 08:15:36 51°21.801 3°6.7 16.7251 4.070642 31.451179 -3.020363
2011-06-16 08:15:41 51°21.804 3°6.725 16.7272 4.069398 31.441098 -3.020363
2011-06-16 08:15:46 51°21.806 3°6.751 16.7287 4.070745 31.452705 -3.020363
2011-06-16 08:15:51 51°21.808 3°6.777 16.7258 4.070745 31.452705 -3.020363
2011-06-16 08:15:56 51°21.81 3°6.803 16.7297 4.068776 31.436374 -3.020363
2011-06-16 08:16:01 51°21.812 3°6.828 16.7273 4.068776 31.436374 -3.020363
2011-06-16 08:16:06 51°21.813 3°6.854 16.7299 4.069502 31.442623 -3.020363
2011-06-16 08:16:11 51°21.814 3°6.88 16.7274 4.070745 31.453337 -3.020363
2011-06-16 08:16:16 51°21.816 3°6.906 16.7248 4.069191 31.439945 -3.020363
2011-06-16 08:16:21 51°21.817 3°6.932 16.7272 4.070953 31.455123 -3.020363
2011-06-16 08:16:26 51°21.819 3°6.957 16.7314 4.070538 31.451552 -3.020363
2011-06-16 08:16:30 51°21.82 3°6.978 16.7276 4.070538 31.451552 -3.020363
2011-06-16 08:16:36 51°21.822 3°7.009 16.7258 4.07116 31.456276 -3.020363
2011-06-16 08:16:41 51°21.824 3°7.035 16.7252 4.07116 31.456909 -3.020363
2011-06-16 08:16:46 51°21.826 3°7.061 16.7255 4.070953 31.455123 -3.020363
2011-06-16 08:16:51 51°21.828 3°7.086 16.7252 4.071264 31.457802 -3.020363